                ,  0.671,  0.769,  0.868,  0.966,  1.065,  1.163,  1.262,  1.361,  1.459,  1.558,  1.656,  1.755,  1.853,  1.952,  2.050,  2.149,  2.247,  2.346,  2.445,  2.543,  2.642,  2.740,  2.839,  2.937,  3.036,  3.134,  3.233,  3.331,  3.430,  3.528,  3.627,  3.726,  3.824,  3.923,  4.021,  4.120,  4.218,  4.317,  4.415,  4.514,  4.612,  4.711,  4.809,  4.908,  5.007,  5.105,  5.204,  5.302,  5.401,  5.499,  5.598,  5.696,  5.795,  5.893,  5.992,  6.091,  6.189,  6.288,  6.386,  6.485,  6.583,  6.682,  6.780,  6.879,  6.977,  7.076,  7.174,  7.273,  7.372,  7.470
2004/10/12 00:00,   -1.6,   -1.8,   -1.4,    1.3,  999.0,  999.0,  999.0,   -3.1,   -5.4,  999.0,  999.0,  999.0,    1.4,    2.9,    3.4,  999.0,  999.0,    3.2,   -0.6,  999.0,  999.0,    6.3,    7.3,    8.6,  999.0,   12.5,  999.0,   17.0,  999.0,   15.5,  999.0,  999.0,  999.0,  999.0,  999.0,  999.0,  999.0,  999.0,  999.0,  999.0,  999.0,  999.0,  999.0,  999.0,  999.0,  999.0,  999.0,  999.0,  999.0,  999.0,  999.0,  999.0,  999.0,  999.0,  999.0,  999.0,  999.0,  999.0,  999.0,  999.0,  999.0,  999.0,  999.0,  999.0,  999.0,  999.0,  999.0,  999.0,  999.0,  999.0
2004/10/12 00:10,   -0.7,   -1.9,  999.0,  999.0,  999.0,    0.8,   -2.2,  999.0,   -1.1,  999.0,  999.0,  999.0,    1.5,    2.7,    1.2,  999.0,   -0.5,    1.3,    0.2,  999.0,    3.1,  999.0,  999.0,    9.2,  999.0,   12.1,   14.4,   16.8,  999.0,  999.0,  999.0,  999.0,  999.0,  999.0,  999.0,  999.0,  999.0,  999.0,  999.0,  999.0,  999.0,  999.0,  999.0,  999.0,  999.0,  999.0,  999.0,  999.0,  999.0,  999.0,  999.0,  999.0,  999.0,  999.0,  999.0,  999.0,  999.0,  999.0,  999.0,  999.0,  999.0,  999.0,  999.0,  999.0,  999.0,  999.0,  999.0,  999.0,  999.0,  999.0
2004/10/12 00:20,  999.0,  999.0,    0.0,   -1.2,    0.6,  999.0,  999.0,  999.0,  999.0,  999.0,  999.0,  999.0,    0.6,    3.4,    4.2,    5.2,  999.0,    2.1,  999.0,  999.0,    5.4,  999.0,  999.0,  999.0,  999.0,   11.8,   14.4,   16.0,   16.4,   16.6,  999.0,  999.0,  999.0,  999.0,  999.0,  999.0,  999.0,  999.0,  999.0,  999.0,  999.0,  999.0,  999.0,  999.0,  999.0,  999.0,  999.0,  999.0,  999.0,  999.0,  999.0,  999.0,  999.0,  999.0,  999.0,  999.0,  999.0,  999.0,  999.0,  999.0,  999.0,  999.0,  999.0,  999.0,  999.0,  999.0,  999.0,  999.0,  999.0,  999.0
2004/10/12 00:30,  999.0,  999.0,  999.0,   -0.6,    2.2,  999.0,  999.0,  999.0,  999.0,  999.0,  999.0,    2.2,    1.7,    3.9,    4.3,    3.7,  999.0,    2.0,    2.3,    3.8,    6.4,    8.4,  999.0,  999.0,  999.0,   10.6,   12.9,   14.7,   15.6,  999.0,   15.2,  999.0,  999.0,  999.0,  999.0,  999.0,  999.0,  999.0,  999.0,  999.0,  999.0,  999.0,  999.0,  999.0,  999.0,  999.0,  999.0,  999.0,  999.0,  999.0,  999.0,  999.0,  999.0,  999.0,  999.0,  999.0,  999.0,  999.0,  999.0,  999.0,  999.0,  999.0,  999.0,  999.0,  999.0,  999.0,  999.0,  999.0,  999.0,  999.0
2004/10/12 00:40,   -0.3,   -1.0,   -0.4,   -0.3,    0.3,  999.0,  999.0,  999.0,  999.0,  999.0,    0.6,    0.7,  999.0,    4.3,    4.9,    4.7,    3.2,    1.5,    4.9,    6.0,    6.9,    8.3,    8.8,  999.0,  999.0,   11.9,   13.9,   15.4,   15.8,   15.8,   15.9,  999.0,  999.0,  999.0,  999.0,  999.0,  999.0,  999.0,  999.0,  999.0,  999.0,  999.0,  999.0,  999.0,  999.0,  999.0,  999.0,  999.0,  999.0,  999.0,  999.0,  999.0,  999.0,  999.0,  999.0,  999.0,  999.0,  999.0,  999.0,  999.0,  999.0,  999.0,  999.0,  999.0,  999.0,  999.0,  999.0,  999.0,  999.0,  999.0
2004/10/12 00:50,   -1.9,   -0.6,   -3.0,  999.0,   -3.6,  999.0,    0.3,   -0.1,   -0.6,  999.0,  999.0,   -3.0,   -0.5,    2.7,  999.0,  999.0,    4.3,  999.0,    6.9,    7.0,    7.3,    8.2,    8.8,  999.0,  999.0,   12.5,   14.5,   15.5,   15.6,   16.4,   15.7,  999.0,  999.0,  999.0,  999.0,  999.0,  999.0,  999.0,  999.0,  999.0,  999.0,  999.0,  999.0,  999.0,  999.0,  999.0,  999.0,  999.0,  999.0,  999.0,  999.0,  999.0,  999.0,  999.0,  999.0,  999.0,  999.0,  999.0,  999.0,  999.0,  999.0,  999.0,  999.0,  999.0,  999.0,  999.0,  999.0,  999.0,  999.0,  999.0
2004/10/12 01:00,  999.0,  999.0,   -1.4,  999.0,  999.0,  999.0,   -1.3,  999.0,   -0.1,  999.0,  999.0,  999.0,  999.0,  999.0,  999.0,  999.0,  999.0,  999.0,    6.9,    7.3,    7.6,    8.4,    9.5,  999.0,  999.0,   13.1,   15.2,   15.6,   16.5,   17.0,   16.9,   15.3,  999.0,  999.0,  999.0,  999.0,  999.0,  999.0,  999.0,  999.0,  999.0,  999.0,  999.0,  999.0,  999.0,  999.0,  999.0,  999.0,  999.0,  999.0,  999.0,  999.0,  999.0,  999.0,  999.0,  999.0,  999.0,  999.0,  999.0,  999.0,  999.0,  999.0,  999.0,  999.0,  999.0,  999.0,  999.0,  999.0,  999.0,  999.0
2004/10/12 01:10,   -0.8,  999.0,   -0.5,  999.0,  999.0,  999.0,  999.0,  999.0,  999.0,  999.0,  999.0,  999.0,   -1.5,    4.1,    2.2,    4.1,  999.0,    6.4,    7.5,    7.3,    7.6,    8.9,  999.0,  999.0,   11.7,   13.4,   15.1,   16.4,   17.4,   17.6,   17.1,  999.0,  999.0,  999.0,  999.0,  999.0,  999.0,  999.0,  999.0,  999.0,  999.0,  999.0,  999.0,  999.0,  999.0,  999.0,  999.0,  999.0,  999.0,  999.0,  999.0,  999.0,  999.0,  999.0,  999.0,  999.0,  999.0,  999.0,  999.0,  999.0,  999.0,  999.0,  999.0,  999.0,  999.0,  999.0,  999.0,  999.0,  999.0,  999.0
2004/10/12 01:20,  999.0,    0.4,   -0.4,   -0.9,   -0.1,  999.0,  999.0,  999.0,  999.0,  999.0,  999.0,   -1.4,    2.0,    4.3,    5.3,    5.8,    2.1,    5.6,    7.1,    7.0,    6.6,    8.3,  999.0,  999.0,   12.2,   13.3,   15.7,   16.7,   17.4,   17.3,   17.3,  999.0,  999.0,  999.0,  999.0,  999.0,  999.0,  999.0,  999.0,  999.0,  999.0,  999.0,  999.0,  999.0,  999.0,  999.0,  999.0,  999.0,  999.0,  999.0,  999.0,  999.0,  999.0,  999.0,  999.0,  999.0,  999.0,  999.0,  999.0,  999.0,  999.0,  999.0,  999.0,  999.0,  999.0,  999.0,  999.0,  999.0,  999.0,  999.0
2004/10/12 01:30,   -1.8,  999.0,   -1.8,   -0.5,  999.0,  999.0,  999.0,   -1.5,  999.0,  999.0,  999.0,   -0.0,    1.0,    3.5,    4.6,    3.8,  999.0,    6.2,    7.3,    6.6,    7.3,    8.1,   10.4,  999.0,  999.0,   13.6,   15.4,   17.0,   17.7,   17.7,   17.2,  999.0,  999.0,  999.0,  999.0,  999.0,  999.0,  999.0,  999.0,  999.0,  999.0,  999.0,  999.0,  999.0,  999.0,  999.0,  999.0,  999.0,  999.0,  999.0,  999.0,  999.0,  999.0,  999.0,  999.0,  999.0,  999.0,  999.0,  999.0,  999.0,  999.0,  999.0,  999.0,  999.0,  999.0,  999.0,  999.0,  999.0,  999.0,  999.0
2004/10/12 01:40,    0.9,    1.0,   -1.8,    0.1,   -2.5,  999.0,  999.0,   -2.2,   -2.6,   -1.0,    0.8,    2.0,    2.7,    3.2,    5.3,    5.9,  999.0,    7.6,    6.8,    6.9,    6.7,    7.3,    9.9,   10.6,   12.1,   14.6,   16.7,   17.2,   17.3,   17.7,   16.2,  999.0,  999.0,  999.0,  999.0,  999.0,  999.0,  999.0,  999.0,  999.0,  999.0,  999.0,  999.0,  999.0,  999.0,  999.0,  999.0,  999.0,  999.0,  999.0,  999.0,  999.0,  999.0,  999.0,  999.0,  999.0,  999.0,  999.0,  999.0,  999.0,  999.0,  999.0,  999.0,  999.0,  999.0,  999.0,  999.0,  999.0,  999.0,  999.0
2004/10/12 01:50,   -0.9,   -0.8,   -0.3,  999.0,  999.0,   -1.0,  999.0,    1.5,  999.0,    0.2,    0.1,  999.0,  999.0,    2.5,  999.0,    3.4,    1.0,  999.0,  999.0,    6.3,    6.6,    7.0,    9.3,   10.7,   12.8,   15.2,   16.8,   16.6,   17.1,   16.7,   16.4,   15.4,  999.0,  999.0,  999.0,  999.0,  999.0,  999.0,  999.0,  999.0,  999.0,  999.0,  999.0,  999.0,  999.0,  999.0,  999.0,  999.0,  999.0,  999.0,  999.0,  999.0,  999.0,  999.0,  999.0,  999.0,  999.0,  999.0,  999.0,  999.0,  999.0,  999.0,  999.0,  999.0,  999.0,  999.0,  999.0,  999.0,  999.0,  999.0
2004/10/12 02:00,   -1.1,   -0.7,  999.0,  999.0,   -1.3,   -0.8,  999.0,    0.3,  999.0,   -1.7,   -4.0,   -0.2,    0.9,    2.3,    2.9,  999.0,    3.1,    4.3,    5.7,    6.0,    6.5,    7.5,    9.6,   10.5,   12.9,   14.9,   16.3,   17.1,   16.7,   16.3,   15.9,   15.1,  999.0,  999.0,  999.0,  999.0,  999.0,  999.0,  999.0,  999.0,  999.0,  999.0,  999.0,  999.0,  999.0,  999.0,  999.0,  999.0,  999.0,  999.0,  999.0,  999.0,  999.0,  999.0,  999.0,  999.0,  999.0,  999.0,  999.0,  999.0,  999.0,  999.0,  999.0,  999.0,  999.0,  999.0,  999.0,  999.0,  999.0,  999.0
2004/10/12 02:10,   -1.0,   -0.4,  999.0,   -2.3,  999.0,   -2.8,  999.0,  999.0,  999.0,   -0.9,  999.0,   -0.2,  999.0,    1.9,    3.2,  999.0,  999.0,  999.0,  999.0,    5.3,    6.0,    7.3,    8.6,   10.4,   12.4,   14.9,   16.3,   17.0,   16.8,   16.6,   14.6,   14.5,  999.0,  999.0,  999.0,  999.0,  999.0,  999.0,  999.0,  999.0,  999.0,  999.0,  999.0,  999.0,  999.0,  999.0,  999.0,  999.0,  999.0,  999.0,  999.0,  999.0,  999.0,  999.0,  999.0,  999.0,  999.0,  999.0,  999.0,  999.0,  999.0,  999.0,  999.0,  999.0,  999.0,  999.0,  999.0,  999.0,  999.0,  999.0
2004/10/12 02:20,    0.2,   -2.5,   -2.0,  999.0,  999.0,   -3.0,  999.0,   -3.9,  999.0,    1.7,   -0.6,    2.2,    1.9,    2.1,    2.4,    2.6,  999.0,  999.0,  999.0,    5.7,    5.8,  999.0,  999.0,   10.2,   12.7,   15.0,   16.4,   17.0,   16.8,   16.5,   16.3,   14.3,   13.7,   13.6,  999.0,  999.0,  999.0,  999.0,  999.0,  999.0,  999.0,  999.0,  999.0,  999.0,  999.0,  999.0,  999.0,  999.0,  999.0,  999.0,  999.0,  999.0,  999.0,  999.0,  999.0,  999.0,  999.0,  999.0,  999.0,  999.0,  999.0,  999.0,  999.0,  999.0,  999.0,  999.0,  999.0,  999.0,  999.0,  999.0
2004/10/12 02:30,  999.0,    0.5,   -0.4,   -0.4,  999.0,  999.0,  999.0,  999.0,  999.0,    0.8,  999.0,    1.6,    1.1,    1.7,    2.2,    2.4,  999.0,  999.0,    5.2,    4.9,    5.5,  999.0,    8.7,   10.2,   12.4,   14.6,   16.0,   16.6,   16.7,   16.8,   16.6,  999.0,   14.0,   14.1,  999.0,  999.0,  999.0,  999.0,  999.0,  999.0,  999.0,  999.0,  999.0,  999.0,  999.0,  999.0,  999.0,  999.0,  999.0,  999.0,  999.0,  999.0,  999.0,  999.0,  999.0,  999.0,  999.0,  999.0,  999.0,  999.0,  999.0,  999.0,  999.0,  999.0,  999.0,  999.0,  999.0,  999.0,  999.0,  999.0
2004/10/12 02:40,  999.0,    1.4,  999.0,  999.0,  999.0,  999.0,  999.0,  999.0,   -0.8,    2.5,    2.8,    2.0,    0.2,    2.7,    2.8,    3.7,  999.0,    5.5,    4.7,    4.8,    6.1,    7.2,    9.0,   10.1,   12.2,   14.3,   15.6,   15.9,   15.7,   15.3,   15.9,   16.2,   15.0,   14.0,  999.0,  999.0,  999.0,  999.0,  999.0,  999.0,  999.0,  999.0,  999.0,  999.0,  999.0,  999.0,  999.0,  999.0,  999.0,  999.0,  999.0,  999.0,  999.0,  999.0,  999.0,  999.0,  999.0,  999.0,  999.0,  999.0,  999.0,  999.0,  999.0,  999.0,  999.0,  999.0,  999.0,  999.0,  999.0,  999.0
2004/10/12 02:50,    1.5,  999.0,  999.0,  999.0,    2.3,    1.7,   -1.3,   -1.4,    1.9,    1.9,    2.9,  999.0,    1.7,    3.1,  999.0,  999.0,  999.0,  999.0,    3.9,    4.6,    5.7,    6.8,    9.2,   10.2,   12.3,   14.4,   15.8,   16.0,   15.3,   14.9,   15.1,   16.3,  999.0,  999.0,  999.0,  999.0,  999.0,  999.0,  999.0,  999.0,  999.0,  999.0,  999.0,  999.0,  999.0,  999.0,  999.0,  999.0,  999.0,  999.0,  999.0,  999.0,  999.0,  999.0,  999.0,  999.0,  999.0,  999.0,  999.0,  999.0,  999.0,  999.0,  999.0,  999.0,  999.0,  999.0,  999.0,  999.0,  999.0,  999.0
2004/10/12 03:00,    1.0,    0.3,    4.2,  999.0,    2.6,    2.6,   -3.1,  999.0,    1.1,    2.9,    4.5,    4.0,    1.6,    2.5,    3.0,    0.4,    1.4,  999.0,    3.6,    4.3,    6.0,    7.1,    9.6,   11.1,   13.6,   15.5,   16.2,   16.0,   15.9,   16.3,   15.7,   16.2,  999.0,  999.0,  999.0,  999.0,  999.0,  999.0,  999.0,  999.0,  999.0,  999.0,  999.0,  999.0,  999.0,  999.0,  999.0,  999.0,  999.0,  999.0,  999.0,  999.0,  999.0,  999.0,  999.0,  999.0,  999.0,  999.0,  999.0,  999.0,  999.0,  999.0,  999.0,  999.0,  999.0,  999.0,  999.0,  999.0,  999.0,  999.0
2004/10/12 03:10,   -1.0,   -1.2,    2.9,  999.0,  999.0,    1.4,  999.0,    1.3,    2.0,    2.4,    2.4,    2.1,    1.2,    2.4,    3.0,  999.0,    2.8,    1.9,    4.3,    5.3,    6.1,    7.5,    9.8,   11.8,   13.4,   15.2,   16.3,   16.1,   15.9,   16.1,   16.8,   17.1,  999.0,  999.0,  999.0,  999.0,  999.0,  999.0,  999.0,  999.0,  999.0,  999.0,  999.0,  999.0,  999.0,  999.0,  999.0,  999.0,  999.0,  999.0,  999.0,  999.0,  999.0,  999.0,  999.0,  999.0,  999.0,  999.0,  999.0,  999.0,  999.0,  999.0,  999.0,  999.0,  999.0,  999.0,  999.0,  999.0,  999.0,  999.0
2004/10/12 03:20,   -0.4,   -0.4,   -0.0,   -0.6,   -0.5,  999.0,    2.3,    2.9,    3.1,    1.9,    1.2,    1.4,    0.9,    0.9,    2.5,  999.0,  999.0,    3.6,    4.0,    5.4,    6.2,    7.8,    9.7,   11.5,   13.3,   15.1,   16.2,   16.3,   16.2,   15.0,   15.9,   16.4,  999.0,  999.0,  999.0,  999.0,  999.0,  999.0,  999.0,  999.0,  999.0,  999.0,  999.0,  999.0,  999.0,  999.0,  999.0,  999.0,  999.0,  999.0,  999.0,  999.0,  999.0,  999.0,  999.0,  999.0,  999.0,  999.0,  999.0,  999.0,  999.0,  999.0,  999.0,  999.0,  999.0,  999.0,  999.0,  999.0,  999.0,  999.0
2004/10/12 03:30,   -0.7,  999.0,  999.0,  999.0,    1.7,    0.3,    1.3,    2.5,    2.3,    0.9,    3.1,   -0.9,    1.2,    1.7,    1.4,    1.9,    2.9,    3.5,    3.7,    4.8,    5.5,    7.3,    9.5,   11.2,   12.9,   14.7,   16.0,   16.4,   15.8,   15.6,   15.8,   15.6,  999.0,  999.0,  999.0,  999.0,  999.0,  999.0,  999.0,  999.0,  999.0,  999.0,  999.0,  999.0,  999.0,  999.0,  999.0,  999.0,  999.0,  999.0,  999.0,  999.0,  999.0,  999.0,  999.0,  999.0,  999.0,  999.0,  999.0,  999.0,  999.0,  999.0,  999.0,  999.0,  999.0,  999.0,  999.0,  999.0,  999.0,  999.0
2004/10/12 03:40,   -1.5,   -0.5,   -1.9,   -0.5,    1.0,   -1.8,    0.0,    2.6,    2.8,    1.6,    2.1,    0.7,    1.0,    1.4,    1.8,    3.0,    3.1,    2.9,    3.8,    4.8,    5.8,    8.2,    9.6,   12.1,   13.6,   15.2,   16.3,   16.2,   15.9,   15.9,   15.9,  999.0,  999.0,  999.0,   11.1,  999.0,  999.0,  999.0,  999.0,  999.0,  999.0,  999.0,  999.0,  999.0,  999.0,  999.0,  999.0,  999.0,  999.0,  999.0,  999.0,  999.0,  999.0,  999.0,  999.0,  999.0,  999.0,  999.0,  999.0,  999.0,  999.0,  999.0,  999.0,  999.0,  999.0,  999.0,  999.0,  999.0,  999.0,  999.0
2004/10/12 03:50,   -1.0,   -0.7,   -0.0,   -0.6,   -0.7,    1.0,  999.0,    2.1,    2.4,  999.0,    0.1,    2.0,    2.0,    1.4,    1.9,    2.3,    2.6,    2.7,    3.0,    4.5,    5.9,    8.1,    9.3,   12.2,   14.3,   15.9,   16.4,   15.9,   15.5,   15.2,   15.5,   15.2,  999.0,  999.0,  999.0,  999.0,  999.0,  999.0,  999.0,  999.0,  999.0,  999.0,  999.0,  999.0,  999.0,  999.0,  999.0,  999.0,  999.0,  999.0,  999.0,  999.0,  999.0,  999.0,  999.0,  999.0,  999.0,  999.0,  999.0,  999.0,  999.0,  999.0,  999.0,  999.0,  999.0,  999.0,  999.0,  999.0,  999.0,  999.0
2004/10/12 04:00,  999.0,  999.0,  999.0,  999.0,  999.0,  999.0,  999.0,  999.0,    1.8,  999.0,  999.0,    0.7,    1.4,  999.0,    2.1,    1.2,    2.5,    1.6,    3.3,    3.9,  999.0,    7.6,    9.0,   12.8,   14.9,   17.0,   17.6,   17.6,   16.8,   15.3,   15.4,   15.5,  999.0,   11.9,   11.2,  999.0,  999.0,  999.0,  999.0,  999.0,  999.0,  999.0,  999.0,  999.0,  999.0,  999.0,  999.0,  999.0,  999.0,  999.0,  999.0,  999.0,  999.0,  999.0,  999.0,  999.0,  999.0,  999.0,  999.0,  999.0,  999.0,  999.0,  999.0,  999.0,  999.0,  999.0,  999.0,  999.0,  999.0,  999.0
2004/10/12 04:10,   -0.7,   -0.6,  999.0,  999.0,  999.0,  999.0,  999.0,  999.0,    1.1,  999.0,  999.0,    1.7,    1.4,    1.2,  999.0,    0.7,    0.4,    2.1,    2.9,    3.6,  999.0,    6.6,    9.0,   12.9,   15.2,   16.9,   17.5,   17.1,   16.7,   15.6,   14.8,   15.2,   13.8,   10.9,   10.5,  999.0,  999.0,  999.0,  999.0,  999.0,  999.0,  999.0,  999.0,  999.0,  999.0,  999.0,  999.0,  999.0,  999.0,  999.0,  999.0,  999.0,  999.0,  999.0,  999.0,  999.0,  999.0,  999.0,  999.0,  999.0,  999.0,  999.0,  999.0,  999.0,  999.0,  999.0,  999.0,  999.0,  999.0,  999.0
2004/10/12 04:20,    0.0,    0.9,    0.1,   -0.8,    0.5,  999.0,  999.0,  999.0,    1.4,  999.0,  999.0,    2.4,  999.0,    1.1,  999.0,  999.0,  999.0,    1.6,    2.7,    3.5,    5.2,    7.2,    9.3,   13.0,   15.4,   17.2,   17.6,   17.2,   16.4,   15.6,   14.1,   14.4,   14.7,   13.8,  999.0,  999.0,  999.0,  999.0,  999.0,  999.0,  999.0,  999.0,  999.0,  999.0,  999.0,  999.0,  999.0,  999.0,  999.0,  999.0,  999.0,  999.0,  999.0,  999.0,  999.0,  999.0,  999.0,  999.0,  999.0,  999.0,  999.0,  999.0,  999.0,  999.0,  999.0,  999.0,  999.0,  999.0,  999.0,  999.0
2004/10/12 04:30,   -0.8,  999.0,  999.0,   -0.9,    0.6,  999.0,  999.0,    1.1,    2.5,  999.0,    4.0,    2.4,    2.1,  999.0,    1.2,  999.0,    1.5,    2.8,    3.2,    4.0,    5.3,    7.1,    9.1,   12.1,   14.4,   16.0,   16.9,   16.5,   16.5,   15.9,   14.6,   13.7,   13.5,  999.0,   11.2,   11.5,  999.0,  999.0,  999.0,  999.0,  999.0,  999.0,  999.0,  999.0,  999.0,  999.0,  999.0,  999.0,  999.0,  999.0,  999.0,  999.0,  999.0,  999.0,  999.0,  999.0,  999.0,  999.0,  999.0,  999.0,  999.0,  999.0,  999.0,  999.0,  999.0,  999.0,  999.0,  999.0,  999.0,  999.0
2004/10/12 04:40,   -0.4,    0.3,   -0.7,   -0.1,   -0.7,  999.0,  999.0,    2.3,    1.8,  999.0,  999.0,    2.0,    2.6,    2.3,  999.0,  999.0,    1.9,    3.0,    3.1,    4.5,    5.4,    6.9,    7.7,   10.7,   12.0,   14.2,   15.7,   16.7,   16.5,   15.8,   15.2,   14.4,   13.2,   12.8,  999.0,  999.0,  999.0,  999.0,  999.0,  999.0,  999.0,  999.0,  999.0,  999.0,  999.0,  999.0,  999.0,  999.0,  999.0,  999.0,  999.0,  999.0,  999.0,  999.0,  999.0,  999.0,  999.0,  999.0,  999.0,  999.0,  999.0,  999.0,  999.0,  999.0,  999.0,  999.0,  999.0,  999.0,  999.0,  999.0
2004/10/12 04:50,   -0.9,   -0.4,   -0.3,  999.0,  999.0,  999.0,  999.0,  999.0,    2.0,    2.2,    0.3,    1.6,    2.6,    1.7,  999.0,  999.0,  999.0,  999.0,    3.3,  999.0,    5.0,    6.3,    7.5,    9.2,   11.1,   13.1,   15.0,   16.4,   15.8,   15.6,   15.0,   14.0,  999.0,   15.1,   14.8,   13.8,  999.0,  999.0,  999.0,  999.0,  999.0,  999.0,  999.0,  999.0,  999.0,  999.0,  999.0,  999.0,  999.0,  999.0,  999.0,  999.0,  999.0,  999.0,  999.0,  999.0,  999.0,  999.0,  999.0,  999.0,  999.0,  999.0,  999.0,  999.0,  999.0,  999.0,  999.0,  999.0,  999.0,  999.0
2004/10/12 05:00,   -0.8,   -1.1,   -0.9,  999.0,   -1.0,   -0.3,  999.0,  999.0,    1.7,   -0.1,   -0.4,    0.7,    1.8,    1.1,    0.5,  999.0,  999.0,  999.0,  999.0,    3.2,    4.8,    6.4,    7.6,    9.6,   10.8,   13.2,   15.1,   16.3,   15.9,   15.4,   15.5,   15.5,   16.6,   16.3,   15.2,   13.6,   13.6,  999.0,  999.0,  999.0,  999.0,  999.0,  999.0,  999.0,  999.0,  999.0,  999.0,  999.0,  999.0,  999.0,  999.0,  999.0,  999.0,  999.0,  999.0,  999.0,  999.0,  999.0,  999.0,  999.0,  999.0,  999.0,  999.0,  999.0,  999.0,  999.0,  999.0,  999.0,  999.0,  999.0
2004/10/12 05:10,   -0.8,   -1.5,    0.2,  999.0,  999.0,  999.0,   -3.2,  999.0,  999.0,  999.0,  999.0,  999.0,    0.6,  999.0,  999.0,  999.0,  999.0,    1.5,    2.6,    3.6,    4.6,    6.4,    7.4,    9.5,    9.9,   13.1,   15.3,  999.0,  999.0,  999.0,   16.2,   16.0,   16.3,   16.1,   16.1,   15.0,   13.2,   13.0,  999.0,  999.0,  999.0,  999.0,  999.0,  999.0,  999.0,  999.0,  999.0,  999.0,  999.0,  999.0,  999.0,  999.0,  999.0,  999.0,  999.0,  999.0,  999.0,  999.0,  999.0,  999.0,  999.0,  999.0,  999.0,  999.0,  999.0,  999.0,  999.0,  999.0,  999.0,  999.0
2004/10/12 05:20,    0.1,   -0.0,    0.2,   -1.8,  999.0,  999.0,  999.0,  999.0,    0.4,   -3.0,   -2.8,    0.1,    1.4,  999.0,  999.0,  999.0,  999.0,    1.6,    3.6,    3.8,  999.0,    6.5,    7.3,    8.2,    9.5,   13.0,  999.0,   17.1,   15.6,   16.0,   16.6,   16.2,  999.0,   15.9,   15.9,   15.0,   13.8,   13.4,  999.0,  999.0,  999.0,  999.0,  999.0,  999.0,  999.0,  999.0,  999.0,  999.0,  999.0,  999.0,  999.0,  999.0,  999.0,  999.0,  999.0,  999.0,  999.0,  999.0,  999.0,  999.0,  999.0,  999.0,  999.0,  999.0,  999.0,  999.0,  999.0,  999.0,  999.0,  999.0
2004/10/12 05:30,    0.0,   -0.2,   -1.9,  999.0,  999.0,  999.0,  999.0,  999.0,    1.2,  999.0,    3.8,  999.0,  999.0,  999.0,  999.0,  999.0,    1.2,  999.0,    3.8,    4.2,  999.0,    6.9,  999.0,    9.2,   11.6,  999.0,   16.7,  999.0,  999.0,   16.8,   16.7,   17.5,  999.0,   16.3,   16.0,   16.0,   15.8,   14.8,   13.6,   12.7,  999.0,  999.0,  999.0,  999.0,  999.0,  999.0,  999.0,  999.0,  999.0,  999.0,  999.0,  999.0,  999.0,  999.0,  999.0,  999.0,  999.0,  999.0,  999.0,  999.0,  999.0,  999.0,  999.0,  999.0,  999.0,  999.0,  999.0,  999.0,  999.0,  999.0
2004/10/12 05:40,   -1.4,   -0.5,  999.0,  999.0,    0.4,  999.0,  999.0,    2.5,    2.5,    2.6,    1.8,    2.1,    1.5,    1.1,    0.9,    1.0,    1.7,    3.0,    3.6,  999.0,    6.0,    6.8,    8.3,    9.6,   11.3,  999.0,  999.0,  999.0,  999.0,  999.0,   16.7,   16.4,  999.0,  999.0,  999.0,  999.0,   16.3,   15.8,   13.7,   13.2,  999.0,  999.0,  999.0,  999.0,  999.0,  999.0,  999.0,  999.0,  999.0,  999.0,  999.0,  999.0,  999.0,  999.0,  999.0,  999.0,  999.0,  999.0,  999.0,  999.0,  999.0,  999.0,  999.0,  999.0,  999.0,  999.0,  999.0,  999.0,  999.0,  999.0
2004/10/12 05:50,   -0.9,   -1.6,   -0.1,    0.2,  999.0,   -0.2,  999.0,    0.7,  999.0,    0.9,    1.4,    1.3,    1.0,    1.2,  999.0,    0.3,    1.4,    2.3,    3.7,    4.1,    5.0,    6.2,    7.4,    9.1,   10.7,  999.0,  999.0,  999.0,  999.0,   16.1,  999.0,  999.0,  999.0,  999.0,   16.5,   17.0,   17.1,   16.1,  999.0,  999.0,  999.0,  999.0,  999.0,  999.0,  999.0,  999.0,  999.0,  999.0,  999.0,  999.0,  999.0,  999.0,  999.0,  999.0,  999.0,  999.0,  999.0,  999.0,  999.0,  999.0,  999.0,  999.0,  999.0,  999.0,  999.0,  999.0,  999.0,  999.0,  999.0,  999.0
2004/10/12 06:00,   -0.5,   -0.4,   -0.3,    0.1,   -0.1,   -0.2,    0.8,  999.0,    0.8,  999.0,    1.1,    1.1,    0.7,  999.0,  999.0,    0.7,    1.6,    2.9,    3.8,  999.0,    4.5,    6.1,    7.3,    8.9,   11.2,  999.0,  999.0,   17.1,  999.0,   16.4,  999.0,  999.0,  999.0,  999.0,  999.0,   16.8,   17.0,   16.9,   14.4,  999.0,  999.0,  999.0,  999.0,  999.0,  999.0,  999.0,  999.0,  999.0,  999.0,  999.0,  999.0,  999.0,  999.0,  999.0,  999.0,  999.0,  999.0,  999.0,  999.0,  999.0,  999.0,  999.0,  999.0,  999.0,  999.0,  999.0,  999.0,  999.0,  999.0,  999.0
2004/10/12 06:10,   -0.5,   -0.7,  999.0,  999.0,   -0.4,  999.0,    1.2,  999.0,  999.0,    1.5,    1.5,    1.1,    1.0,  999.0,  999.0,   -0.1,    0.8,    2.0,    3.2,    3.7,    4.0,    5.6,    6.9,    9.1,   12.0,  999.0,   16.8,   17.1,  999.0,   15.8,   16.1,   16.4,   15.7,  999.0,   14.3,   15.7,   16.2,   15.9,   14.2,  999.0,  999.0,  999.0,  999.0,  999.0,  999.0,  999.0,  999.0,  999.0,  999.0,  999.0,  999.0,  999.0,  999.0,  999.0,  999.0,  999.0,  999.0,  999.0,  999.0,  999.0,  999.0,  999.0,  999.0,  999.0,  999.0,  999.0,  999.0,  999.0,  999.0,  999.0
2004/10/12 06:20,   -0.4,  999.0,  999.0,  999.0,   -0.2,  999.0,    1.8,  999.0,    0.7,  999.0,    1.6,    1.2,  999.0,    0.3,  999.0,   -0.6,    0.6,    1.5,    3.0,    3.7,    4.4,    5.5,    7.3,   10.0,   13.4,   15.8,   17.1,   17.3,  999.0,   14.7,   15.4,  999.0,  999.0,  999.0,  999.0,   14.4,   14.8,   15.1,   15.0,  999.0,  999.0,  999.0,  999.0,  999.0,  999.0,  999.0,  999.0,  999.0,  999.0,  999.0,  999.0,  999.0,  999.0,  999.0,  999.0,  999.0,  999.0,  999.0,  999.0,  999.0,  999.0,  999.0,  999.0,  999.0,  999.0,  999.0,  999.0,  999.0,  999.0,  999.0
2004/10/12 06:30,   -0.5,   -1.2,   -0.7,   -0.0,    0.3,    0.5,    1.7,  999.0,    1.1,    1.6,    1.9,  999.0,    0.2,  999.0,  999.0,   -0.4,    0.6,    1.6,    2.9,    3.8,    3.9,    5.6,    7.4,   10.1,   14.0,   16.5,   17.5,   17.7,  999.0,  999.0,   16.0,   15.5,  999.0,  999.0,  999.0,  999.0,  999.0,   13.8,   13.9,   13.5,   12.7,  999.0,  999.0,  999.0,  999.0,  999.0,  999.0,  999.0,  999.0,  999.0,  999.0,  999.0,  999.0,  999.0,  999.0,  999.0,  999.0,  999.0,  999.0,  999.0,  999.0,  999.0,  999.0,  999.0,  999.0,  999.0,  999.0,  999.0,  999.0,  999.0
2004/10/12 06:40,   -0.9,   -1.1,   -0.2,   -0.1,    0.1,   -0.2,   -0.1,   -0.2,  999.0,    0.9,  999.0,    0.8,  999.0,  999.0,   -0.1,  999.0,    1.3,    2.3,    3.1,    3.7,    4.2,    6.5,    8.6,   11.1,   14.5,   16.5,   17.9,   17.7,  999.0,  999.0,   16.7,  999.0,  999.0,  999.0,  999.0,  999.0,   14.4,   12.8,   13.7,   13.0,   11.8,  999.0,  999.0,  999.0,  999.0,  999.0,  999.0,  999.0,  999.0,  999.0,  999.0,  999.0,  999.0,  999.0,  999.0,  999.0,  999.0,  999.0,  999.0,  999.0,  999.0,  999.0,  999.0,  999.0,  999.0,  999.0,  999.0,  999.0,  999.0,  999.0
2004/10/12 06:50,   -0.8,   -1.1,    0.2,  999.0,  999.0,    1.0,   -0.6,  999.0,  999.0,    1.4,    0.8,    0.8,  999.0,    0.4,   -0.3,  999.0,    1.8,    3.0,    3.7,    3.6,    4.8,    7.0,    9.9,   12.4,   14.8,   16.8,   17.9,   17.6,  999.0,  999.0,  999.0,   17.8,  999.0,  999.0,  999.0,  999.0,  999.0,   11.8,  999.0,  999.0,   11.8,  999.0,  999.0,  999.0,  999.0,  999.0,  999.0,  999.0,  999.0,  999.0,  999.0,  999.0,  999.0,  999.0,  999.0,  999.0,  999.0,  999.0,  999.0,  999.0,  999.0,  999.0,  999.0,  999.0,  999.0,  999.0,  999.0,  999.0,  999.0,  999.0
2004/10/12 07:00,   -0.7,  999.0,  999.0,  999.0,  999.0,  999.0,   -1.3,  999.0,  999.0,    1.6,    1.3,    0.6,    0.4,   -0.5,   -0.2,  999.0,    2.0,    3.0,    3.6,    3.6,    5.6,    7.8,   10.3,   13.2,   15.8,   17.4,   17.5,   17.6,  999.0,   17.6,   17.7,  999.0,  999.0,  999.0,  999.0,  999.0,  999.0,   10.9,  999.0,  999.0,  999.0,  999.0,  999.0,  999.0,  999.0,  999.0,  999.0,  999.0,  999.0,  999.0,  999.0,  999.0,  999.0,  999.0,  999.0,  999.0,  999.0,  999.0,  999.0,  999.0,  999.0,  999.0,  999.0,  999.0,  999.0,  999.0,  999.0,  999.0,  999.0,  999.0
2004/10/12 07:10,   -1.0,   -0.3,  999.0,  999.0,  999.0,  999.0,   -0.1,  999.0,  999.0,    0.1,    1.2,    0.7,    0.6,    0.9,    0.1,    0.7,    1.4,    2.6,    3.5,    3.8,    4.4,    6.2,    9.1,   12.1,   14.6,   16.6,  999.0,  999.0,  999.0,  999.0,   17.0,  999.0,  999.0,  999.0,  999.0,  999.0,  999.0,  999.0,   10.8,   12.3,  999.0,  999.0,  999.0,  999.0,  999.0,  999.0,  999.0,  999.0,  999.0,  999.0,  999.0,  999.0,  999.0,  999.0,  999.0,  999.0,  999.0,  999.0,  999.0,  999.0,  999.0,  999.0,  999.0,  999.0,  999.0,  999.0,  999.0,  999.0,  999.0,  999.0
2004/10/12 07:20,   -1.6,   -1.4,   -0.7,    1.0,    0.8,    0.9,   -0.8,  999.0,  999.0,    0.8,    0.9,    0.5,    0.9,  999.0,  999.0,    0.8,    1.8,    2.8,    3.5,    4.0,    4.4,    5.8,    8.4,   11.5,   13.6,  999.0,  999.0,  999.0,  999.0,  999.0,  999.0,  999.0,  999.0,  999.0,  999.0,  999.0,  999.0,  999.0,  999.0,  999.0,   11.7,  999.0,  999.0,  999.0,  999.0,  999.0,  999.0,  999.0,  999.0,  999.0,  999.0,  999.0,  999.0,  999.0,  999.0,  999.0,  999.0,  999.0,  999.0,  999.0,  999.0,  999.0,  999.0,  999.0,  999.0,  999.0,  999.0,  999.0,  999.0,  999.0
2004/10/12 07:30,   -1.3,   -0.7,  999.0,   -0.7,    0.7,   -0.3,   -0.5,   -0.4,    0.3,    0.5,    1.2,    1.1,    0.7,    0.4,    0.7,  999.0,    1.3,    2.3,    3.1,    3.8,    4.2,    4.8,    6.9,    9.9,   13.2,   14.8,  999.0,  999.0,  999.0,   16.5,  999.0,  999.0,  999.0,  999.0,   14.6,  999.0,  999.0,  999.0,   10.7,   12.1,   12.2,  999.0,  999.0,  999.0,  999.0,  999.0,  999.0,  999.0,  999.0,  999.0,  999.0,  999.0,  999.0,  999.0,  999.0,  999.0,  999.0,  999.0,  999.0,  999.0,  999.0,  999.0,  999.0,  999.0,  999.0,  999.0,  999.0,  999.0,  999.0,  999.0
2004/10/12 07:40,   -0.6,   -1.3,   -0.4,   -0.1,    0.3,    0.0,  999.0,  999.0,    0.4,    0.8,    0.8,    0.8,    1.5,    0.6,    0.9,    1.0,    1.3,    2.4,    3.1,    3.7,    4.0,    4.2,    5.9,   10.4,   13.4,   15.4,   16.3,   15.5,  999.0,  999.0,  999.0,  999.0,  999.0,   16.9,   14.6,   14.0,   13.0,  999.0,    9.9,   10.9,   11.3,   11.0,   10.5,  999.0,  999.0,  999.0,  999.0,  999.0,  999.0,  999.0,  999.0,  999.0,  999.0,  999.0,  999.0,  999.0,  999.0,  999.0,  999.0,  999.0,  999.0,  999.0,  999.0,  999.0,  999.0,  999.0,  999.0,  999.0,  999.0,  999.0
2004/10/12 07:50,   -0.3,  999.0,    0.1,   -0.3,    0.0,  999.0,    0.3,    0.1,    0.4,  999.0,    0.4,    1.0,  999.0,    0.8,    1.2,    1.6,    2.2,    3.0,    3.4,  999.0,    4.0,    4.4,  999.0,  999.0,   14.4,   15.8,  999.0,  999.0,  999.0,  999.0,  999.0,  999.0,  999.0,  999.0,   14.5,   13.4,   13.4,  999.0,  999.0,    9.7,   10.5,   10.7,   10.6,  999.0,  999.0,  999.0,  999.0,  999.0,  999.0,  999.0,  999.0,  999.0,  999.0,  999.0,  999.0,  999.0,  999.0,  999.0,  999.0,  999.0,  999.0,  999.0,  999.0,  999.0,  999.0,  999.0,  999.0,  999.0,  999.0,  999.0
2004/10/12 08:00,   -0.5,   -0.7,   -0.2,  999.0,  999.0,  999.0,  999.0,  999.0,    0.4,    1.3,    0.2,    0.7,    0.9,    1.0,    1.7,    1.4,    2.1,    2.8,  999.0,    3.7,    3.8,    4.8,    7.8,   11.4,   14.5,   16.1,  999.0,  999.0,  999.0,  999.0,  999.0,  999.0,  999.0,   15.8,   16.1,   14.5,   13.4,  999.0,  999.0,    9.5,   10.5,  999.0,   10.0,  999.0,  999.0,  999.0,  999.0,  999.0,  999.0,  999.0,  999.0,  999.0,  999.0,  999.0,  999.0,  999.0,  999.0,  999.0,  999.0,  999.0,  999.0,  999.0,  999.0,  999.0,  999.0,  999.0,  999.0,  999.0,  999.0,  999.0
2004/10/12 08:10,   -0.7,   -0.2,  999.0,    0.4,  999.0,  999.0,  999.0,  999.0,  999.0,    1.1,  999.0,    0.7,    1.1,    1.1,    2.0,    1.7,    2.5,  999.0,    3.7,    4.2,    4.0,    4.6,    6.4,    9.5,   12.6,  999.0,  999.0,  999.0,  999.0,  999.0,  999.0,  999.0,  999.0,  999.0,   16.3,  999.0,  999.0,  999.0,  999.0,  999.0,    8.8,    9.9,   10.3,  999.0,  999.0,  999.0,  999.0,  999.0,  999.0,  999.0,  999.0,  999.0,  999.0,  999.0,  999.0,  999.0,  999.0,  999.0,  999.0,  999.0,  999.0,  999.0,  999.0,  999.0,  999.0,  999.0,  999.0,  999.0,  999.0,  999.0
2004/10/12 08:20,   -0.5,   -0.3,    0.5,    0.7,    0.1,   -0.5,   -0.2,    0.1,    0.4,    1.2,    0.9,    0.6,    0.9,    1.3,    2.0,    2.0,    2.5,  999.0,    3.6,    4.3,    4.2,    4.6,    6.0,    8.7,   12.0,   15.1,   16.5,   16.0,  999.0,  999.0,   16.3,  999.0,  999.0,   15.7,   15.8,   15.5,   15.4,   14.2,   13.4,   12.2,  999.0,    9.0,    9.6,   10.4,  999.0,  999.0,  999.0,  999.0,  999.0,  999.0,  999.0,  999.0,  999.0,  999.0,  999.0,  999.0,  999.0,  999.0,  999.0,  999.0,  999.0,  999.0,  999.0,  999.0,  999.0,  999.0,  999.0,  999.0,  999.0,  999.0
2004/10/12 08:30,   -0.8,   -2.2,  999.0,  999.0,   -0.0,    0.0,    0.3,  999.0,    0.2,    0.8,    1.1,    0.9,    0.8,    1.6,    2.8,    2.3,    3.2,  999.0,    3.7,    4.1,    4.3,    4.1,    5.7,    8.6,   12.3,  999.0,  999.0,  999.0,  999.0,  999.0,  999.0,  999.0,   15.7,   16.1,   16.7,   16.1,   15.2,   14.8,   14.2,   12.7,   12.3,    9.5,   10.0,    9.9,   10.2,  999.0,  999.0,  999.0,  999.0,  999.0,  999.0,  999.0,  999.0,  999.0,  999.0,  999.0,  999.0,  999.0,  999.0,  999.0,  999.0,  999.0,  999.0,  999.0,  999.0,  999.0,  999.0,  999.0,  999.0,  999.0
2004/10/12 08:40,   -0.8,   -0.5,   -0.0,    0.2,    0.0,   -0.5,   -0.1,    0.4,    0.5,    0.9,    1.0,    0.8,    1.2,    1.6,    2.8,    2.4,    3.3,    3.7,    3.3,    3.6,    4.1,    4.5,    5.4,    7.7,   12.0,   15.1,   16.5,  999.0,  999.0,  999.0,   15.2,  999.0,  999.0,  999.0,   15.6,   15.8,   15.7,   15.0,   14.1,   13.2,   11.9,   10.5,   10.2,  999.0,  999.0,  999.0,  999.0,  999.0,  999.0,  999.0,  999.0,  999.0,  999.0,  999.0,  999.0,  999.0,  999.0,  999.0,  999.0,  999.0,  999.0,  999.0,  999.0,  999.0,  999.0,  999.0,  999.0,  999.0,  999.0,  999.0
2004/10/12 08:50,   -1.2,   -0.6,   -0.1,    0.3,   -0.5,   -0.2,   -0.1,    0.8,  999.0,    1.0,    1.1,    1.6,    1.7,    1.4,    2.3,    2.6,    2.8,    3.0,    3.2,    3.6,    4.2,    4.8,    6.4,    9.4,   12.5,  999.0,  999.0,  999.0,  999.0,  999.0,  999.0,  999.0,  999.0,  999.0,  999.0,  999.0,   15.4,   15.2,   14.8,   13.4,   11.9,   10.8,    9.7,  999.0,  999.0,  999.0,  999.0,  999.0,  999.0,  999.0,  999.0,  999.0,  999.0,  999.0,  999.0,  999.0,  999.0,  999.0,  999.0,  999.0,  999.0,  999.0,  999.0,  999.0,  999.0,  999.0,  999.0,  999.0,  999.0,  999.0
2004/10/12 09:00,   -0.7,   -0.6,   -0.6,   -0.4,    0.5,    0.7,    0.0,    0.2,   -0.3,    0.8,    0.2,    0.4,    1.4,    0.9,    1.9,    2.6,    3.3,    3.1,    3.3,    4.1,    4.8,    5.8,    8.3,   11.0,   13.8,   16.3,  999.0,  999.0,  999.0,   15.8,  999.0,  999.0,  999.0,  999.0,  999.0,  999.0,  999.0,  999.0,   14.6,   14.4,   13.3,  999.0,  999.0,  999.0,  999.0,  999.0,  999.0,  999.0,  999.0,  999.0,  999.0,  999.0,  999.0,  999.0,  999.0,  999.0,  999.0,  999.0,  999.0,  999.0,  999.0,  999.0,  999.0,  999.0,  999.0,  999.0,  999.0,  999.0,  999.0,  999.0
2004/10/12 09:10,   -1.1,   -0.2,    0.1,    0.2,    0.0,    0.7,    0.2,    0.3,    0.4,    0.7,    1.6,   -0.1,    0.8,    0.5,    1.5,    2.5,    2.2,    2.9,    3.5,    4.4,    5.4,    7.6,   11.0,   13.3,   16.1,   17.6,  999.0,  999.0,  999.0,  999.0,  999.0,  999.0,  999.0,  999.0,  999.0,  999.0,  999.0,  999.0,   13.5,   14.1,   13.6,   12.9,  999.0,  999.0,  999.0,  999.0,  999.0,  999.0,  999.0,  999.0,  999.0,  999.0,  999.0,  999.0,  999.0,  999.0,  999.0,  999.0,  999.0,  999.0,  999.0,  999.0,  999.0,  999.0,  999.0,  999.0,  999.0,  999.0,  999.0,  999.0
2004/10/12 09:20,   -1.2,   -0.4,    0.3,    0.1,    0.5,    0.2,    0.0,    0.9,    0.5,    0.8,    1.2,    0.2,    0.8,  999.0,    1.8,  999.0,    2.4,    3.0,    3.7,    5.1,    7.4,   10.6,   12.5,   14.9,   16.8,   17.5,  999.0,  999.0,  999.0,  999.0,   14.6,  999.0,  999.0,  999.0,  999.0,  999.0,  999.0,  999.0,   13.6,   14.4,  999.0,   12.4,  999.0,  999.0,  999.0,  999.0,  999.0,  999.0,  999.0,  999.0,  999.0,  999.0,  999.0,  999.0,  999.0,  999.0,  999.0,  999.0,  999.0,  999.0,  999.0,  999.0,  999.0,  999.0,  999.0,  999.0,  999.0,  999.0,  999.0,  999.0
2004/10/12 09:30,   -0.3,   -0.1,   -0.0,    0.1,    0.0,    0.0,   -0.6,    1.8,    0.6,    1.6,    0.9,    0.2,    0.7,    1.3,    1.9,    2.5,    2.3,    2.9,    4.1,    5.3,    7.1,   10.5,   12.6,   15.2,   16.8,   16.8,  999.0,  999.0,  999.0,  999.0,  999.0,  999.0,  999.0,  999.0,  999.0,  999.0,  999.0,  999.0,   13.3,   13.7,   12.4,   11.2,  999.0,  999.0,  999.0,  999.0,  999.0,  999.0,  999.0,  999.0,  999.0,  999.0,  999.0,  999.0,  999.0,  999.0,  999.0,  999.0,  999.0,  999.0,  999.0,  999.0,  999.0,  999.0,  999.0,  999.0,  999.0,  999.0,  999.0,  999.0
2004/10/12 09:40,   -0.7,   -0.0,    0.6,    0.0,   -0.2,    0.3,    1.3,    1.0,    0.5,    0.8,    1.6,    0.5,    0.5,    1.1,    1.9,    2.6,    2.7,    2.4,    3.4,    5.4,    6.7,    8.5,   12.3,  999.0,   15.1,  999.0,  999.0,  999.0,   14.3,  999.0,   13.4,   14.4,   14.2,   13.5,   14.5,  999.0,  999.0,  999.0,   14.0,  999.0,   12.0,  999.0,  999.0,  999.0,  999.0,  999.0,  999.0,  999.0,  999.0,  999.0,  999.0,  999.0,  999.0,  999.0,  999.0,  999.0,  999.0,  999.0,  999.0,  999.0,  999.0,  999.0,  999.0,  999.0,  999.0,  999.0,  999.0,  999.0,  999.0,  999.0
2004/10/12 09:50,   -0.5,   -0.9,   -0.4,   -0.0,   -0.1,   -0.3,    1.6,    1.4,    0.1,   -0.5,    0.7,    0.4,    1.6,    1.4,    1.5,    2.3,  999.0,    2.0,    3.2,    4.9,    6.4,    9.1,   11.7,   13.5,   15.0,   15.4,   15.2,   15.4,  999.0,  999.0,  999.0,   15.2,   14.7,   14.0,   12.8,  999.0,  999.0,  999.0,   13.3,   13.4,   12.0,   12.0,  999.0,  999.0,  999.0,  999.0,  999.0,  999.0,  999.0,  999.0,  999.0,  999.0,  999.0,  999.0,  999.0,  999.0,  999.0,  999.0,  999.0,  999.0,  999.0,  999.0,  999.0,  999.0,  999.0,  999.0,  999.0,  999.0,  999.0,  999.0
2004/10/12 10:00,   -0.6,    0.1,   -0.6,    0.1,    0.7,    0.1,    2.1,    1.3,    1.0,    1.5,    1.1,    1.1,    1.4,    1.1,    1.6,    2.0,  999.0,  999.0,    2.6,    5.0,    6.7,   10.1,   12.1,   13.9,   15.5,   16.1,   15.3,   15.9,  999.0,  999.0,  999.0,  999.0,   15.5,   15.0,   14.8,  999.0,  999.0,  999.0,  999.0,   14.0,   12.3,   12.5,   12.4,   12.2,  999.0,  999.0,  999.0,  999.0,  999.0,  999.0,  999.0,  999.0,  999.0,  999.0,  999.0,  999.0,  999.0,  999.0,  999.0,  999.0,  999.0,  999.0,  999.0,  999.0,  999.0,  999.0,  999.0,  999.0,  999.0,  999.0
2004/10/12 10:10,   -0.4,    0.4,   -0.7,    0.3,   -0.7,    1.1,    1.2,    2.0,    1.1,    1.0,    1.7,    1.0,    1.8,    2.2,    2.5,    3.1,    3.3,    2.6,    2.7,    3.7,    6.5,    8.6,   10.9,   12.7,   14.1,   15.6,  999.0,  999.0,  999.0,  999.0,  999.0,  999.0,   14.4,  999.0,  999.0,  999.0,  999.0,   14.5,   14.6,   14.4,   14.5,   13.5,   12.5,  999.0,  999.0,  999.0,  999.0,  999.0,  999.0,  999.0,  999.0,  999.0,  999.0,  999.0,  999.0,  999.0,  999.0,  999.0,  999.0,  999.0,  999.0,  999.0,  999.0,  999.0,  999.0,  999.0,  999.0,  999.0,  999.0,  999.0
2004/10/12 10:20,    0.6,   -0.2,   -0.1,   -0.4,   -0.0,    0.2,    0.8,    0.8,    0.2,    0.6,    2.0,    1.6,    2.4,    2.6,    2.7,    2.6,    3.4,    3.9,    2.8,  999.0,    5.7,    7.6,   10.0,   11.1,   12.7,   13.9,  999.0,  999.0,   15.4,  999.0,  999.0,   15.7,   16.8,   15.0,   13.7,  999.0,  999.0,  999.0,  999.0,  999.0,   14.9,   13.6,   12.4,  999.0,  999.0,  999.0,  999.0,  999.0,  999.0,  999.0,  999.0,  999.0,  999.0,  999.0,  999.0,  999.0,  999.0,  999.0,  999.0,  999.0,  999.0,  999.0,  999.0,  999.0,  999.0,  999.0,  999.0,  999.0,  999.0,  999.0
2004/10/12 10:30,   -0.8,   -0.6,   -0.1,   -0.6,   -0.3,    0.5,    0.6,    0.7,    0.7,    0.9,    1.0,    1.3,    2.2,    2.6,    2.7,    2.7,    3.0,    3.0,    2.9,    3.9,    5.7,    7.5,    9.8,   10.6,   12.7,   14.5,   16.0,  999.0,  999.0,  999.0,  999.0,  999.0,  999.0,   16.0,   14.4,  999.0,   15.3,  999.0,  999.0,   15.3,   15.3,   14.7,   12.9,   11.8,  999.0,  999.0,  999.0,  999.0,  999.0,  999.0,  999.0,  999.0,  999.0,  999.0,  999.0,  999.0,  999.0,  999.0,  999.0,  999.0,  999.0,  999.0,  999.0,  999.0,  999.0,  999.0,  999.0,  999.0,  999.0,  999.0
2004/10/12 10:40,    0.3,   -0.1,   -0.1,    0.2,    0.7,    0.9,    1.2,    1.0,    1.3,    1.2,    1.6,    2.4,    2.3,    2.0,    3.6,    3.3,    2.7,    3.7,    2.9,    5.2,    6.3,    7.7,    9.8,   10.8,   12.3,   13.5,   15.0,   14.5,   14.8,   15.6,   16.6,  999.0,  999.0,  999.0,  999.0,  999.0,  999.0,  999.0,  999.0,  999.0,  999.0,   16.0,   13.5,   13.0,   11.9,  999.0,  999.0,  999.0,  999.0,  999.0,  999.0,  999.0,  999.0,  999.0,  999.0,  999.0,  999.0,  999.0,  999.0,  999.0,  999.0,  999.0,  999.0,  999.0,  999.0,  999.0,  999.0,  999.0,  999.0,  999.0
2004/10/12 10:50,   -0.5,   -0.2,   -0.3,    0.5,    0.4,    0.3,    1.9,    2.0,    1.7,    1.7,    2.2,    2.7,    2.4,    2.6,    3.8,    1.4,    2.7,    3.7,  999.0,  999.0,    9.9,   10.3,    9.9,   11.5,   12.9,   13.3,   14.6,  999.0,   14.6,   15.5,  999.0,  999.0,  999.0,  999.0,  999.0,  999.0,  999.0,  999.0,  999.0,  999.0,  999.0,  999.0,  999.0,   13.5,  999.0,  999.0,  999.0,  999.0,  999.0,  999.0,  999.0,  999.0,  999.0,  999.0,  999.0,  999.0,  999.0,  999.0,  999.0,  999.0,  999.0,  999.0,  999.0,  999.0,  999.0,  999.0,  999.0,  999.0,  999.0,  999.0
2004/10/12 11:00,   -0.3,   -0.1,    0.1,    0.0,    0.7,    1.2,    1.1,    0.8,    2.2,    2.4,    2.3,    3.0,    3.5,    3.9,    5.0,    4.0,    2.9,    5.4,    4.6,    6.1,    9.5,   10.8,   10.0,   13.0,   12.2,   14.4,   12.5,  999.0,  999.0,   14.4,  999.0,  999.0,  999.0,  999.0,  999.0,  999.0,  999.0,   14.5,  999.0,  999.0,   14.4,   14.2,   13.3,   12.4,   11.4,   10.3,  999.0,  999.0,  999.0,  999.0,  999.0,  999.0,  999.0,  999.0,  999.0,  999.0,  999.0,  999.0,  999.0,  999.0,  999.0,  999.0,  999.0,  999.0,  999.0,  999.0,  999.0,  999.0,  999.0,  999.0
2004/10/12 11:10,   -0.5,   -0.6,   -0.1,   -0.2,    0.4,    0.9,    1.0,    0.9,    1.8,    1.7,    1.6,    2.2,    2.1,    2.7,    4.2,    3.9,    5.0,    4.7,    5.7,    4.7,    5.9,    7.2,   12.3,   14.3,  999.0,  999.0,  999.0,  999.0,  999.0,  999.0,  999.0,  999.0,  999.0,  999.0,  999.0,  999.0,  999.0,  999.0,  999.0,  999.0,  999.0,  999.0,  999.0,    9.9,    8.9,  999.0,  999.0,  999.0,  999.0,  999.0,  999.0,  999.0,  999.0,  999.0,  999.0,  999.0,  999.0,  999.0,  999.0,  999.0,  999.0,  999.0,  999.0,  999.0,  999.0,  999.0,  999.0,  999.0,  999.0,  999.0
2004/10/12 11:20,   -0.2,   -0.3,   -0.1,    0.3,    0.4,    1.0,    0.8,    1.0,    1.9,    1.2,    0.7,    1.6,    3.3,    3.3,    4.1,    4.0,    4.9,    4.9,    9.3,    5.9,    5.8,  999.0,  999.0,  999.0,  999.0,  999.0,  999.0,  999.0,  999.0,  999.0,  999.0,  999.0,  999.0,  999.0,  999.0,  999.0,  999.0,  999.0,  999.0,   13.9,   13.4,  999.0,   11.2,   10.4,    9.0,    9.0,    9.3,    9.1,    9.1,    8.7,    9.8,  999.0,    9.4,   10.6,   10.4,  999.0,  999.0,  999.0,  999.0,  999.0,  999.0,  999.0,  999.0,  999.0,  999.0,  999.0,  999.0,  999.0,  999.0,  999.0
2004/10/12 11:30,   -0.3,   -1.2,   -0.2,   -0.1,   -0.2,    1.4,    0.9,    1.3,    1.8,    1.6,    0.7,    2.4,    2.6,    2.5,    2.5,    1.5,    1.8,  999.0,  999.0,  999.0,  999.0,  999.0,  999.0,  999.0,  999.0,  999.0,  999.0,  999.0,  999.0,  999.0,  999.0,  999.0,  999.0,  999.0,  999.0,  999.0,  999.0,  999.0,  999.0,  999.0,   13.3,  999.0,  999.0,   10.9,   10.2,   10.0,    9.7,    9.1,    9.4,  999.0,    9.2,  999.0,  999.0,    9.7,    9.7,  999.0,  999.0,  999.0,  999.0,  999.0,  999.0,  999.0,  999.0,  999.0,  999.0,  999.0,  999.0,  999.0,  999.0,  999.0
2004/10/12 11:40,   -0.9,   -0.4,    0.0,    0.3,    0.4,    0.5,    1.2,    1.9,    3.0,    3.3,    2.4,    2.2,    2.1,    1.5,    1.3,    2.0,    1.3,   -0.9,    1.8,  999.0,  999.0,    7.3,   10.5,   12.4,   14.2,   13.8,  999.0,  999.0,  999.0,  999.0,   14.9,   15.3,  999.0,  999.0,  999.0,  999.0,  999.0,  999.0,  999.0,  999.0,  999.0,  999.0,  999.0,  999.0,   11.0,   10.4,   10.3,   10.0,   10.1,  999.0,  999.0,   10.8,   11.1,   10.5,  999.0,  999.0,  999.0,  999.0,  999.0,  999.0,  999.0,  999.0,  999.0,  999.0,  999.0,  999.0,  999.0,  999.0,  999.0,  999.0
2004/10/12 11:50,   -0.8,   -0.1,    0.0,    0.2,    0.2,    0.6,    1.4,    1.6,    1.8,    2.6,    3.0,    2.8,    2.0,    1.9,    2.9,    3.4,    3.5,    2.2,    5.8,    4.7,    7.2,    9.5,   10.8,   12.7,   14.2,   14.8,  999.0,  999.0,   16.0,   16.1,  999.0,  999.0,  999.0,  999.0,  999.0,  999.0,  999.0,  999.0,  999.0,   15.3,  999.0,   15.0,  999.0,  999.0,   11.8,   11.0,   10.4,   10.3,   10.0,   10.3,   10.6,   11.3,   11.5,   11.9,   12.9,  999.0,  999.0,  999.0,  999.0,  999.0,  999.0,  999.0,  999.0,  999.0,  999.0,  999.0,  999.0,  999.0,  999.0,  999.0
2004/10/12 12:00,   -1.1,   -0.3,   -0.2,    0.1,    0.2,    1.3,    1.8,    2.5,    4.3,  999.0,    4.0,    4.4,    3.6,    4.2,    4.0,    3.6,    2.5,    1.9,    2.1,    4.2,    8.3,    9.4,   10.3,   11.5,   12.9,   14.6,  999.0,  999.0,  999.0,  999.0,  999.0,   15.9,  999.0,  999.0,  999.0,  999.0,  999.0,  999.0,  999.0,   14.5,   15.5,   13.8,   12.8,   12.6,  999.0,  999.0,  999.0,  999.0,   10.1,   10.3,   10.5,   11.0,   11.6,   11.2,  999.0,  999.0,  999.0,  999.0,  999.0,  999.0,  999.0,  999.0,  999.0,  999.0,  999.0,  999.0,  999.0,  999.0,  999.0,  999.0
2004/10/12 12:10,   -1.6,   -0.7,   -0.3,   -0.2,   -0.0,    0.8,    0.8,    1.5,    1.9,    1.5,    2.2,    3.4,    4.1,    4.2,    4.1,    3.4,    5.3,    5.0,    4.7,    3.9,    3.0,  999.0,  999.0,   13.3,   15.8,  999.0,  999.0,  999.0,  999.0,  999.0,   17.7,  999.0,  999.0,  999.0,  999.0,  999.0,  999.0,  999.0,  999.0,   17.6,   18.4,   16.5,   15.2,  999.0,  999.0,  999.0,  999.0,    9.7,  999.0,  999.0,   11.7,  999.0,  999.0,  999.0,  999.0,  999.0,  999.0,  999.0,  999.0,  999.0,  999.0,  999.0,  999.0,  999.0,  999.0,  999.0,  999.0,  999.0,  999.0,  999.0
2004/10/12 12:20,   -1.7,   -0.7,   -0.8,   -0.3,    0.2,    0.7,    1.2,    1.1,    2.1,    2.2,    3.0,    3.9,    3.2,    2.9,    2.5,    3.0,    5.4,    7.0,    7.8,    9.4,   14.8,  999.0,  999.0,   14.9,   13.7,   14.3,   15.2,  999.0,  999.0,   13.9,  999.0,   15.9,   15.4,   14.3,  999.0,  999.0,  999.0,   13.5,   15.0,   17.7,   15.3,   15.6,  999.0,   13.9,  999.0,   12.7,   11.3,   10.3,  999.0,  999.0,  999.0,  999.0,  999.0,  999.0,  999.0,  999.0,  999.0,  999.0,  999.0,  999.0,  999.0,  999.0,  999.0,  999.0,  999.0,  999.0,  999.0,  999.0,  999.0,  999.0
2004/10/12 12:30,   -1.3,   -0.4,   -0.1,   -0.0,   -0.0,    0.2,    1.0,    1.6,    1.8,    1.9,    2.3,    1.4,    2.4,    2.3,    3.6,    4.1,    5.1,    7.6,    7.5,    9.8,    5.9,    9.4,   10.2,   12.5,   11.4,   12.2,   13.3,   14.3,   13.5,   14.7,  999.0,  999.0,   15.0,   15.0,   15.6,  999.0,   13.3,   13.9,   13.6,  999.0,   13.2,  999.0,  999.0,  999.0,  999.0,  999.0,   10.4,   10.6,  999.0,  999.0,  999.0,   12.2,  999.0,  999.0,  999.0,  999.0,  999.0,  999.0,  999.0,  999.0,  999.0,  999.0,  999.0,  999.0,  999.0,  999.0,  999.0,  999.0,  999.0,  999.0
2004/10/12 12:40,   -1.2,   -0.4,    0.2,    0.2,    0.1,    0.1,    0.7,    1.1,    2.2,    2.7,    2.9,    3.4,    4.4,    3.8,    4.0,    4.1,  999.0,    6.4,    7.3,    8.0,    9.4,    8.6,    9.8,   11.0,   12.5,   14.7,   15.2,   15.1,   15.5,   15.8,  999.0,  999.0,   15.7,   15.1,   15.8,  999.0,   12.9,   13.2,   13.9,   14.8,   14.8,  999.0,  999.0,  999.0,  999.0,  999.0,    9.9,    9.6,  999.0,    9.2,  999.0,  999.0,  999.0,  999.0,  999.0,  999.0,  999.0,  999.0,  999.0,  999.0,  999.0,  999.0,  999.0,  999.0,  999.0,  999.0,  999.0,  999.0,  999.0,  999.0
2004/10/12 12:50,   -1.1,   -0.2,   -0.6,   -0.3,   -0.3,   -0.1,    0.2,    0.9,    2.1,    3.0,    2.9,    3.2,    3.6,    3.4,    3.4,    4.1,    4.6,    5.3,    6.2,    7.1,    8.5,    8.6,    9.4,   10.6,   12.6,   14.0,  999.0,  999.0,   15.7,  999.0,  999.0,  999.0,  999.0,  999.0,   16.2,  999.0,   13.6,   14.0,   15.2,   15.5,  999.0,  999.0,  999.0,  999.0,   10.6,  999.0,   11.2,   10.2,   10.6,  999.0,   11.5,   12.1,  999.0,  999.0,  999.0,  999.0,  999.0,  999.0,  999.0,  999.0,  999.0,  999.0,  999.0,  999.0,  999.0,  999.0,  999.0,  999.0,  999.0,  999.0
2004/10/12 13:00,   -1.5,   -1.1,   -0.2,   -0.5,   -0.2,    0.1,    0.9,    2.3,    2.0,    2.3,    2.5,    2.5,  999.0,    2.9,    2.2,    2.8,    3.3,    3.9,    6.3,    6.6,    8.1,    9.0,    9.8,   12.4,   14.0,   15.6,  999.0,   15.6,   15.1,   16.3,   17.1,   17.8,  999.0,  999.0,  999.0,  999.0,   15.0,   16.4,  999.0,  999.0,  999.0,  999.0,  999.0,   12.4,   12.3,  999.0,   11.2,  999.0,   10.6,   11.7,   11.7,  999.0,  999.0,  999.0,  999.0,  999.0,  999.0,  999.0,  999.0,  999.0,  999.0,  999.0,  999.0,  999.0,  999.0,  999.0,  999.0,  999.0,  999.0,  999.0
2004/10/12 13:10,   -1.2,   -1.1,   -0.6,   -0.4,   -0.2,   -0.2,    1.0,    2.0,    2.7,    2.8,    3.3,    3.6,    4.1,    4.5,    4.5,    4.2,    5.7,    3.8,    6.5,    7.2,    7.0,    9.6,   10.5,   11.6,   13.0,   14.8,  999.0,  999.0,  999.0,  999.0,   18.1,   19.6,  999.0,  999.0,  999.0,  999.0,   16.3,   17.2,  999.0,  999.0,  999.0,  999.0,  999.0,   14.2,   14.9,   13.8,   13.4,   12.0,   11.5,  999.0,   13.0,  999.0,  999.0,  999.0,  999.0,  999.0,  999.0,  999.0,  999.0,  999.0,  999.0,  999.0,  999.0,  999.0,  999.0,  999.0,  999.0,  999.0,  999.0,  999.0
2004/10/12 13:20,   -1.1,   -0.6,   -0.6,   -0.5,   -0.6,   -0.4,    0.0,    0.5,    1.7,    2.1,    2.8,    3.1,    4.0,    4.2,    4.2,    4.0,    4.5,    4.3,    4.7,    7.5,    7.6,    7.1,    9.0,   10.6,   12.2,   13.6,   15.2,  999.0,   16.4,   16.6,   17.4,  999.0,  999.0,  999.0,  999.0,   15.3,   15.7,   16.4,   15.5,   14.9,  999.0,  999.0,   12.5,   13.9,   14.5,  999.0,   13.4,   12.4,   12.0,  999.0,   12.7,   12.9,  999.0,  999.0,  999.0,  999.0,  999.0,  999.0,  999.0,  999.0,  999.0,  999.0,  999.0,  999.0,  999.0,  999.0,  999.0,  999.0,  999.0,  999.0
2004/10/12 13:30,   -0.3,   -0.1,    0.0,   -0.3,   -0.4,   -0.4,   -0.1,   -0.3,    0.1,    1.3,    2.5,    3.1,    3.3,    2.7,    2.2,    3.8,    3.8,    3.8,    3.2,    5.6,    8.4,    9.9,   12.1,   14.8,   14.1,   16.9,   21.9,   19.8,   18.9,   19.5,  999.0,   17.2,  999.0,   19.3,   17.8,   17.5,   16.3,  999.0,   17.0,   15.1,   15.2,   14.5,   13.1,   13.4,   14.0,   14.6,  999.0,  999.0,  999.0,   12.1,  999.0,  999.0,  999.0,  999.0,  999.0,  999.0,  999.0,  999.0,  999.0,  999.0,  999.0,  999.0,  999.0,  999.0,  999.0,  999.0,  999.0,  999.0,  999.0,  999.0
2004/10/12 13:40,   -0.9,   -0.3,   -0.1,   -0.2,   -0.3,   -0.4,   -0.4,    0.0,    1.1,    2.2,    2.5,    3.2,    1.6,    1.5,    1.5,    1.3,    1.7,    3.6,    4.7,    7.0,    7.2,    8.7,   13.7,   12.1,   14.3,  999.0,   16.8,   20.6,  999.0,  999.0,  999.0,   20.4,   20.2,   18.8,   18.5,   19.1,   19.4,   18.7,   18.1,   18.0,   16.4,   16.3,   17.2,   18.4,   16.8,   16.6,   15.1,   12.6,   12.4,   11.8,   11.8,  999.0,  999.0,  999.0,  999.0,  999.0,  999.0,  999.0,  999.0,  999.0,  999.0,  999.0,  999.0,  999.0,  999.0,  999.0,  999.0,  999.0,  999.0,  999.0
2004/10/12 13:50,   -1.0,   -0.3,   -0.4,   -0.4,   -0.3,   -0.5,   -0.3,    0.9,    2.5,    3.5,    2.8,    3.4,    2.3,    1.4,    1.6,    2.7,    3.3,    3.8,    5.9,    4.1,  999.0,    6.7,  999.0,  999.0,   17.1,  999.0,  999.0,   17.1,   16.3,   16.4,  999.0,  999.0,  999.0,   16.8,   17.1,   16.0,   16.3,   16.0,   16.0,   15.8,   15.7,   16.4,   17.5,   18.5,  999.0,   15.5,   15.1,   12.9,   12.1,   11.1,   11.2,  999.0,  999.0,  999.0,  999.0,  999.0,  999.0,  999.0,  999.0,  999.0,  999.0,  999.0,  999.0,  999.0,  999.0,  999.0,  999.0,  999.0,  999.0,  999.0
2004/10/12 14:00,   -1.0,   -1.1,   -0.4,   -0.6,   -0.5,   -0.5,   -0.1,    0.3,    1.1,    1.9,    2.4,    2.0,    2.4,    3.8,    4.9,  999.0,    6.9,    5.3,    8.1,    9.7,   10.1,    9.0,    9.0,   10.9,   11.7,   14.0,   14.9,   15.2,   14.3,   14.8,   14.8,   15.2,  999.0,   15.0,  999.0,  999.0,  999.0,   12.9,   13.0,   13.1,   12.9,   12.3,   12.9,   14.4,  999.0,  999.0,  999.0,   12.1,   10.9,    9.7,    8.9,    9.8,  999.0,  999.0,  999.0,  999.0,  999.0,  999.0,  999.0,  999.0,  999.0,  999.0,  999.0,  999.0,  999.0,  999.0,  999.0,  999.0,  999.0,  999.0
2004/10/12 14:10,    0.2,    0.1,   -0.0,   -0.2,   -0.1,   -0.4,   -0.2,   -0.0,    0.9,    3.7,    2.8,    3.5,    3.8,    4.1,    3.6,    3.6,    3.5,    1.5,    1.8,    4.2,    4.1,    5.0,    7.2,   10.0,   12.5,   14.4,   14.8,   14.6,   14.7,   15.4,   15.7,   15.4,  999.0,   14.5,  999.0,   13.4,   14.0,   13.9,   13.6,   12.8,   12.9,   12.5,   13.8,   14.6,  999.0,  999.0,  999.0,  999.0,  999.0,   11.0,    9.6,    9.1,  999.0,  999.0,  999.0,  999.0,  999.0,  999.0,  999.0,  999.0,  999.0,  999.0,  999.0,  999.0,  999.0,  999.0,  999.0,  999.0,  999.0,  999.0
2004/10/12 14:20,   -0.0,    0.2,   -0.3,   -0.0,   -0.2,   -0.3,   -0.6,    1.3,    2.2,    2.5,    3.7,    3.3,    2.4,    2.4,    3.0,    3.0,    3.9,    4.5,    5.6,    6.7,    8.2,    9.7,   11.8,   14.2,   15.5,   16.3,   16.3,   16.6,   16.6,   16.6,   15.5,  999.0,  999.0,   15.8,  999.0,   14.4,   14.0,   14.3,   14.2,  999.0,  999.0,   15.9,   15.9,   16.6,  999.0,  999.0,  999.0,  999.0,  999.0,   11.8,   11.2,   10.5,   11.4,  999.0,  999.0,  999.0,  999.0,  999.0,  999.0,  999.0,  999.0,  999.0,  999.0,  999.0,  999.0,  999.0,  999.0,  999.0,  999.0,  999.0
2004/10/12 14:30,    0.3,   -0.1,   -0.6,   -0.6,   -0.2,   -0.1,    1.3,    1.0,    3.8,    3.6,    3.3,    3.8,    4.2,    4.8,    5.0,    4.9,    4.8,    5.4,    5.6,    6.3,    7.5,    9.3,   11.2,   12.8,   14.5,   15.2,   15.3,   15.2,   15.2,   15.7,   16.1,   17.7,  999.0,   14.9,  999.0,   14.2,  999.0,  999.0,   15.1,   15.5,   15.3,   15.3,   15.7,   17.0,   16.2,   16.9,  999.0,  999.0,  999.0,  999.0,  999.0,  999.0,  999.0,  999.0,  999.0,  999.0,  999.0,  999.0,  999.0,  999.0,  999.0,  999.0,  999.0,  999.0,  999.0,  999.0,  999.0,  999.0,  999.0,  999.0
2004/10/12 14:40,   -0.7,   -1.2,   -0.8,   -0.5,   -0.4,   -0.0,    1.0,    0.8,    1.7,    2.1,    2.8,    3.5,    3.6,    3.7,    3.2,    3.5,    4.1,    4.1,    4.7,    7.8,    8.9,    7.6,   10.9,   13.9,   15.7,   15.8,   16.1,   16.0,   15.7,   16.6,   17.6,   17.3,   16.8,   15.4,  999.0,   13.9,   14.7,  999.0,   14.1,   14.2,   13.9,   14.0,  999.0,  999.0,  999.0,  999.0,  999.0,   17.4,   16.2,  999.0,  999.0,  999.0,  999.0,  999.0,  999.0,  999.0,  999.0,  999.0,  999.0,  999.0,  999.0,  999.0,  999.0,  999.0,  999.0,  999.0,  999.0,  999.0,  999.0,  999.0
2004/10/12 14:50,   -0.4,   -0.7,   -0.7,   -0.0,   -0.2,    0.8,    1.6,    1.9,    2.2,    3.0,    3.3,    3.0,    2.7,    2.7,    2.3,    4.1,    4.4,    5.0,    5.4,    5.1,    5.6,    7.7,   11.2,   13.7,   15.8,   15.2,   15.6,   16.0,   15.9,   16.0,   16.0,   16.4,   17.0,  999.0,  999.0,  999.0,   12.2,   12.8,   13.4,   13.4,   14.0,   14.0,  999.0,  999.0,   15.6,   16.2,   16.0,  999.0,   14.7,   16.1,  999.0,  999.0,  999.0,  999.0,  999.0,  999.0,  999.0,  999.0,  999.0,  999.0,  999.0,  999.0,  999.0,  999.0,  999.0,  999.0,  999.0,  999.0,  999.0,  999.0
2004/10/12 15:00,   -0.1,    0.1,   -0.4,   -0.1,    0.4,    0.5,    0.9,    2.0,    1.8,    0.8,    1.9,    2.2,    2.8,    2.8,  999.0,    4.1,    4.1,    4.9,    5.0,    5.8,    7.0,    7.2,    7.9,   10.5,   13.0,   14.3,   14.5,   14.9,   14.9,   14.6,   15.6,   16.3,   16.7,  999.0,  999.0,  999.0,   13.2,  999.0,  999.0,   13.5,   13.6,   14.2,   15.6,   14.8,   14.5,   16.0,  999.0,  999.0,  999.0,   15.8,   16.2,  999.0,  999.0,  999.0,  999.0,   17.2,   16.8,  999.0,  999.0,  999.0,  999.0,  999.0,  999.0,  999.0,  999.0,  999.0,  999.0,  999.0,  999.0,  999.0
2004/10/12 15:10,   -0.7,   -0.3,  999.0,    0.0,   -0.1,    0.3,    0.7,    2.0,    1.7,    3.0,    3.6,    3.6,    4.1,    4.6,    4.6,    4.6,    4.6,    4.2,    4.6,    5.3,    6.1,    6.9,    7.5,   10.6,   13.2,   14.7,   15.6,   15.4,   15.6,   15.6,   16.7,   16.0,   16.5,   17.2,  999.0,  999.0,   13.2,   12.4,   12.6,   12.0,   12.7,   13.3,   14.0,  999.0,   12.7,  999.0,  999.0,  999.0,  999.0,  999.0,  999.0,  999.0,  999.0,  999.0,   17.6,   16.0,   16.1,   15.0,  999.0,  999.0,  999.0,  999.0,  999.0,  999.0,  999.0,  999.0,  999.0,  999.0,  999.0,  999.0
2004/10/12 15:20,   -0.5,   -0.5,   -0.0,   -0.2,    0.1,    0.4,    1.4,    1.6,    2.0,    2.4,    3.9,    4.4,    4.6,    5.0,    5.0,    5.0,    5.8,    6.0,    6.3,    6.7,    7.0,    7.1,    7.7,   10.2,   12.9,   14.1,   15.2,   15.3,   15.7,   16.1,   15.8,  999.0,   17.0,  999.0,  999.0,  999.0,   13.9,   13.8,   13.6,  999.0,  999.0,   15.1,   15.5,   15.0,   14.2,   12.3,  999.0,  999.0,  999.0,  999.0,  999.0,  999.0,  999.0,  999.0,  999.0,  999.0,  999.0,  999.0,   14.8,   15.1,  999.0,  999.0,  999.0,  999.0,  999.0,  999.0,  999.0,  999.0,  999.0,  999.0
2004/10/12 15:30,   -0.8,   -0.3,    0.0,    0.0,    0.2,    0.4,    0.7,    1.3,    1.8,    3.2,    4.1,    4.4,    4.6,    5.1,    5.3,    5.3,    5.8,    6.2,    6.0,    6.2,    6.3,    6.7,    7.6,    9.9,   11.8,   13.2,   14.4,   15.3,   15.9,   16.8,   16.9,   16.8,   17.6,   16.7,  999.0,  999.0,   13.3,   14.1,   13.3,   14.5,   15.1,   15.1,   15.6,   14.5,   12.9,  999.0,  999.0,  999.0,  999.0,  999.0,  999.0,  999.0,  999.0,  999.0,  999.0,  999.0,  999.0,  999.0,   15.1,   15.7,   15.5,  999.0,  999.0,  999.0,  999.0,  999.0,  999.0,  999.0,  999.0,  999.0
2004/10/12 15:40,   -0.8,   -0.6,   -0.4,   -0.1,   -0.1,    0.4,    0.3,    0.9,    1.6,    3.0,    4.2,    4.2,    4.1,    3.9,    4.2,    3.9,    4.4,    5.3,    5.2,    5.8,    5.7,    6.7,    6.6,  999.0,   10.5,   11.8,   12.4,   13.6,   14.2,   14.5,   14.9,   15.1,  999.0,  999.0,  999.0,   12.1,   11.6,   11.9,   12.9,   14.9,   15.7,   15.6,   15.4,   14.1,  999.0,  999.0,  999.0,  999.0,  999.0,  999.0,  999.0,  999.0,  999.0,  999.0,  999.0,  999.0,  999.0,  999.0,  999.0,   15.0,   15.1,  999.0,  999.0,  999.0,  999.0,  999.0,  999.0,  999.0,  999.0,  999.0
2004/10/12 15:50,   -0.8,   -0.6,   -0.1,   -0.0,    0.1,    0.1,    0.6,    2.5,    3.2,    2.7,    2.6,    2.5,    2.9,    3.0,    3.2,    4.0,    4.0,    3.7,    4.5,    4.6,    5.4,    6.3,    6.9,    9.2,   10.3,   11.3,  999.0,   12.4,   13.3,   14.1,   14.4,  999.0,   14.1,  999.0,  999.0,   11.3,   11.4,   12.0,   11.6,   13.5,   14.1,   14.5,   14.7,   14.8,   13.9,  999.0,  999.0,  999.0,  999.0,  999.0,  999.0,  999.0,  999.0,  999.0,  999.0,  999.0,  999.0,  999.0,  999.0,  999.0,  999.0,  999.0,  999.0,  999.0,  999.0,  999.0,  999.0,  999.0,  999.0,  999.0
2004/10/12 16:00,    2.1,    2.6,   -0.6,    2.0,   -0.3,    3.7,  999.0,   -1.5,    0.4,    2.0,    1.2,    2.0,    4.1,    4.6,    4.8,    4.9,    5.0,    5.8,    5.5,    6.8,    7.7,    9.4,   11.1,   11.9,   12.6,   13.0,   13.9,   14.4,   15.3,   12.6,  999.0,  999.0,  999.0,  999.0,   13.7,   14.8,   14.5,   13.7,   13.5,   12.8,   13.4,   14.5,   15.0,   16.0,   15.1,   12.0,   11.3,  999.0,  999.0,  999.0,  999.0,  999.0,   12.5,   14.1,   14.5,   16.4,   16.5,   19.4,   16.7,  999.0,  999.0,   15.6,  999.0,  999.0,  999.0,  999.0,  999.0,  999.0,  999.0,  999.0
2004/10/12 16:10,    7.6,   -0.2,    0.9,    0.3,   -0.4,    2.7,    0.0,    2.1,    2.1,    2.2,    3.4,    4.0,    3.9,    3.7,    4.6,    4.8,    4.9,    5.1,    6.0,    6.6,    7.6,    8.3,    7.3,    8.1,    5.8,   11.5,   11.7,   16.2,   14.0,  999.0,  999.0,   10.6,  999.0,  999.0,  999.0,   13.6,   13.8,   15.0,   14.2,   13.6,   13.1,   13.5,   14.4,   14.4,   14.0,   11.5,   11.1,  999.0,   10.7,   13.2,   13.0,   14.2,   12.9,   12.8,   12.7,   12.9,   13.2,   13.3,   12.6,   11.7,   12.0,   14.5,   16.2,   16.8,   15.6,   15.8,   16.0,   15.5,   15.5,   14.2
2004/10/12 16:20,    0.1,    0.0,    0.3,   -0.0,    0.8,    1.1,    2.2,    2.3,    2.0,    2.4,    3.1,    3.7,    4.4,    4.9,    5.2,    4.9,    5.1,    5.5,    8.3,    9.5,    8.2,    9.2,   11.3,   11.1,   11.1,   12.0,   13.0,   15.2,   14.8,   17.3,   16.1,   15.9,   15.6,   14.4,   13.7,   12.6,   13.5,   13.4,   12.2,   13.1,   13.9,   13.6,   14.7,   13.7,   13.9,   12.6,   12.0,   11.2,   10.6,    9.4,    8.6,    8.9,    9.3,   10.5,   10.7,   10.5,   12.0,   12.8,   12.9,  999.0,   15.0,   16.2,   17.1,  999.0,  999.0,  999.0,  999.0,  999.0,  999.0,  999.0
2004/10/12 16:30,    0.1,    2.2,  999.0,   -0.4,    1.3,    0.1,    0.6,    1.7,    2.6,    2.5,    3.5,    3.7,    4.2,    4.1,    4.6,    4.7,    5.0,    5.4,    5.6,    6.3,    7.6,    9.8,   10.7,   10.4,   10.1,   10.2,   11.0,   12.7,   13.8,  999.0,   13.4,   12.4,   14.5,   13.2,   11.9,   13.0,   12.0,   11.5,   11.6,   12.9,   14.4,   15.0,   15.1,   14.8,   13.6,   12.3,   10.7,   11.2,  999.0,   10.4,  999.0,  999.0,    9.9,   11.4,   12.1,  999.0,   14.7,  999.0,   15.7,  999.0,  999.0,   16.4,   16.6,  999.0,  999.0,  999.0,  999.0,  999.0,  999.0,  999.0
2004/10/12 16:40,   -0.0,    0.2,    0.3,    1.3,    1.2,    0.9,    0.8,    2.6,    2.5,    1.9,    3.4,    6.2,    5.2,    4.8,    4.9,    5.8,    4.8,    5.9,    6.1,    7.8,    8.9,    9.4,   12.0,   11.9,   10.6,   10.8,   12.2,   14.0,   14.6,   14.4,   14.5,   14.7,   14.6,   14.6,   15.3,   13.3,   15.1,   15.5,   14.5,   14.3,   18.2,   18.1,   17.8,   16.7,   14.2,   12.1,   12.0,   13.5,   14.7,   14.4,   12.5,   11.3,   11.3,   12.4,   13.0,   16.1,   15.0,   14.5,   15.7,   16.3,   15.6,   15.8,   16.2,   16.6,   16.2,   16.7,   16.8,  999.0,  999.0,  999.0
2004/10/12 16:50,   -0.3,    0.4,    0.7,    2.1,    2.9,    1.2,    1.8,    1.7,    2.5,    1.9,    3.3,    4.0,    4.5,    4.5,    4.1,    4.9,    4.9,    4.5,    5.0,    5.3,    7.7,    6.2,    8.1,  999.0,    9.2,    8.9,  999.0,   14.1,   10.2,   12.4,   12.4,   13.0,   12.1,   13.7,   13.8,   15.2,   14.8,   16.4,   15.2,   16.4,   17.5,   18.0,   17.7,   16.7,   15.0,   13.2,   12.1,   10.5,   10.6,   10.9,    9.4,    9.6,   10.0,   10.1,   10.1,   10.6,   10.7,   12.1,   11.4,   12.8,   13.0,   13.1,   13.7,   14.5,  999.0,  999.0,  999.0,  999.0,  999.0,  999.0
2004/10/12 17:00,    0.1,    0.4,    0.2,    0.0,    0.1,    0.4,    0.8,    1.6,    2.2,    2.6,    2.5,    3.5,    4.2,    4.6,    4.4,    4.7,    4.8,    5.2,    5.6,    5.7,    6.0,    8.2,    9.9,    9.6,    9.3,   11.6,   12.4,   13.2,   13.5,   13.4,   12.3,   12.7,   12.6,   13.0,   15.0,   14.7,   14.8,  999.0,  999.0,  999.0,   15.0,   15.5,   16.5,   17.0,   15.3,   14.3,   13.9,   11.4,  999.0,  999.0,  999.0,    9.7,   11.2,   12.0,   12.4,   13.4,   13.8,  999.0,   17.1,   15.6,   16.2,   16.8,   18.4,   17.8,   18.4,   18.1,   19.4,   20.0,   19.2,   18.3
2004/10/12 17:10,   -0.2,   -0.3,    0.2,   -0.0,    0.1,    0.3,    1.2,    1.5,    2.7,    2.8,    2.7,    2.9,    3.3,    3.4,    3.4,    3.9,    4.4,    5.0,    5.3,    5.5,    5.8,    8.0,    9.0,    9.0,    9.1,   11.1,   12.8,   13.8,   12.6,   12.7,  999.0,  999.0,  999.0,  999.0,  999.0,   14.3,   14.7,   15.0,   14.5,   12.7,   14.3,   13.8,   15.8,   17.5,  999.0,  999.0,  999.0,   15.9,   14.3,   11.3,   10.2,    9.1,    9.2,    8.6,    9.5,    9.5,   11.6,   11.6,   10.4,   11.0,   10.8,   10.2,   13.4,   14.5,   17.3,   18.4,   18.5,   18.5,   18.1,  999.0
2004/10/12 17:20,   -1.9,   -1.1,   -0.1,   -1.1,   -1.6,   -0.0,   -1.1,   -3.2,   -2.1,   -4.9,   -4.3,  999.0,  999.0,    3.1,    2.4,   10.0,    8.9,    7.0,    6.6,   10.8,   11.1,   11.1,   11.4,   11.3,   12.3,   10.8,   15.1,    7.1,   16.8,   12.2,   13.6,   12.5,   13.2,   14.1,   13.9,   13.7,   13.3,   13.7,   14.1,   14.6,   14.9,   15.6,   16.1,   16.0,   16.2,   16.9,   17.2,   15.9,   14.2,   12.3,   11.6,   10.5,   10.3,   10.5,    9.9,   10.0,   10.5,   10.4,   12.2,   13.2,   14.2,   14.1,   14.5,   16.1,   15.4,   16.3,   17.0,   15.7,   15.6,   15.3
2004/10/12 17:30,   -3.3,   -1.4,   -1.2,   -1.1,    1.7,    0.8,    0.8,    0.9,    2.7,    2.9,   -1.2,    4.1,   -1.4,    1.9,   -3.2,    5.7,    5.6,  999.0,    3.6,  999.0,    1.8,    3.2,    5.9,    5.1,    7.1,    8.9,   10.1,   13.0,  999.0,  999.0,  999.0,   16.8,   15.7,   15.6,   15.5,   16.3,   16.6,   16.7,   16.7,   16.8,   15.5,   17.1,   16.3,   16.8,   18.0,   19.2,   19.3,   17.7,   16.1,   14.8,   13.8,   12.6,   12.0,   11.2,   10.4,   10.1,   10.6,   12.8,   13.1,   13.1,   13.5,   12.9,   12.7,   15.7,   13.7,   14.3,   14.2,   14.8,   15.6,   15.5
2004/10/12 17:40,   -2.9,   -1.9,   -1.4,   -1.9,   -0.9,   -1.9,   -1.4,   -1.1,   -1.5,    1.5,    2.5,    2.8,    2.8,    3.9,    2.8,    4.2,    5.3,    4.0,    9.1,   10.7,    6.1,    6.1,    7.5,    6.6,    8.2,   12.4,   11.2,   12.2,   11.2,   13.2,   14.3,   14.4,   14.0,   14.6,   15.3,   13.8,   12.7,   14.0,   13.6,   16.5,   15.7,   17.6,   17.9,   18.3,   19.1,   18.5,   15.6,   13.7,   13.0,   13.3,   13.1,   12.9,   12.1,   11.9,    8.9,    9.2,   10.5,   12.1,   12.8,   12.3,   13.9,   15.1,   15.3,   16.5,   16.9,   17.2,   17.6,   18.0,   17.7,   17.8
2004/10/12 17:50,   -5.1,   -4.8,   -3.9,   -4.8,   -3.1,   -2.8,   -0.4,    0.6,   -4.9,   -3.9,   -2.4,   -3.1,   -0.9,    2.2,    1.5,    2.8,    0.7,    3.3,    2.5,    5.8,    6.2,   11.4,   14.1,   13.8,   14.0,   14.4,   15.3,   18.5,   19.3,   16.9,   17.5,  999.0,  999.0,  999.0,  999.0,  999.0,  999.0,   17.7,   19.1,   17.7,   17.6,   18.1,   18.4,   19.7,   21.0,   21.1,   18.0,   15.9,   14.4,   13.8,   13.6,   13.3,   13.1,   12.4,   11.9,   11.8,   12.0,   12.2,   12.2,   13.1,   14.0,   14.0,   14.9,   15.9,   16.4,   17.3,   17.9,   18.2,   18.2,   18.2
2004/10/12 18:00,  999.0,  -18.1,  -17.2,  -15.7,  -14.9,  -15.0,  -12.2,  -15.0,  -14.6,  -11.9,  -12.6,  -13.6,  -12.8,  -11.8,   -8.7,   -9.8,   -9.7,  999.0,  999.0,    4.0,    2.9,    1.3,  999.0,  999.0,  999.0,    5.1,   13.8,   12.6,   14.9,   14.8,  999.0,  999.0,  999.0,  999.0,    9.6,   16.6,   13.8,   18.5,   18.4,   19.4,   19.6,   19.0,   18.6,   19.1,   19.7,   19.5,   18.2,   16.4,   14.3,   12.5,   12.0,   12.0,   11.6,   11.5,   11.6,   12.1,   12.4,   12.7,   12.7,   13.0,   14.2,   14.6,   14.9,   15.3,   15.7,   16.3,   16.8,   16.7,   16.6,   16.8
2004/10/12 18:10,    2.7,    1.9,    0.9,    1.0,    2.1,    2.4,    0.1,    3.8,    2.7,  999.0,   -5.9,   -1.8,    3.7,   -4.2,   -1.8,    3.2,    3.7,    4.8,    1.9,    3.7,   14.4,    7.4,    5.0,    7.8,    9.8,    9.9,   11.8,   11.0,   11.8,   12.1,   13.0,   12.5,   12.1,   14.7,   14.1,   15.0,   14.6,   14.4,   15.2,   15.8,   15.7,   15.6,   16.0,   16.6,   17.1,   17.4,   16.0,   14.4,   12.5,   12.1,   11.8,   11.1,   11.2,   11.3,   11.3,   11.1,   11.4,   11.8,   12.3,   12.9,   13.4,   14.5,   15.1,   15.4,   15.5,   15.9,   16.5,   16.9,   17.3,   17.9
2004/10/12 18:20,   -0.6,   -2.8,   -3.6,   -3.5,   -0.5,   -2.5,   -2.9,   -5.8,   -5.6,   -4.4,   -6.1,   -5.8,   -1.8,   -1.7,    0.0,    4.4,    1.5,    0.9,    1.4,    5.2,    5.4,  999.0,  999.0,   10.1,   10.8,  999.0,   10.7,   10.0,   12.0,   12.7,  999.0,   13.2,   13.6,  999.0,   15.3,   16.5,   15.6,   15.7,   15.0,   15.1,   15.8,   14.5,   15.8,   15.9,   15.0,   16.4,   14.6,   13.1,   11.8,   11.5,   10.9,   11.9,   11.4,   11.5,   10.4,   11.0,  999.0,  999.0,   13.0,  999.0,  999.0,   13.1,  999.0,  999.0,  999.0,   17.3,   18.5,   18.0,   17.0,   17.0
2004/10/12 18:30,   -1.3,   -1.1,   -0.7,   -0.4,    0.6,   -0.4,   -0.8,   -0.0,    0.6,    0.2,    3.0,    2.9,    3.0,    3.5,    3.5,    3.3,    3.5,    4.1,    4.6,    6.0,    7.7,    7.8,    7.7,    8.2,    9.0,    9.5,    9.8,   11.2,   11.6,   12.2,   12.7,   13.7,   14.7,   14.8,   15.5,   16.5,   16.7,  999.0,  999.0,  999.0,  999.0,  999.0,   16.0,   16.6,   14.8,   16.3,   14.9,   14.2,   13.5,   13.2,   13.0,   13.1,   13.2,   13.2,   12.8,  999.0,  999.0,  999.0,  999.0,  999.0,  999.0,  999.0,  999.0,  999.0,  999.0,  999.0,  999.0,  999.0,   17.9,  999.0
2004/10/12 18:40,   -1.6,   -1.0,   -0.7,   -0.0,    0.2,   -0.1,    0.2,    0.8,    0.8,    1.0,    0.7,    2.2,    2.4,    2.5,    3.1,    2.5,    3.2,    3.8,    4.5,    6.7,    7.5,    7.1,    7.6,    8.5,    9.6,    9.9,   11.2,   12.3,   12.6,   12.8,   13.0,   13.5,   14.6,   15.6,   16.5,   16.4,  999.0,  999.0,  999.0,  999.0,  999.0,  999.0,  999.0,   16.0,   18.3,   13.7,  999.0,   13.8,   12.0,   12.1,   12.5,   12.4,   11.9,   13.0,   12.9,  999.0,  999.0,  999.0,  999.0,  999.0,  999.0,  999.0,  999.0,  999.0,  999.0,  999.0,  999.0,  999.0,  999.0,  999.0
2004/10/12 18:50,   -2.0,   -2.4,   -1.8,   -1.7,   -0.0,    0.7,    0.1,    0.8,    1.0,    1.7,    2.3,    3.1,    2.7,    3.1,    2.8,    3.4,    3.7,    4.0,    4.6,    6.0,    6.5,  999.0,    8.1,    8.8,    9.1,   10.5,   11.6,   12.2,   12.5,   12.7,   13.0,   13.6,   14.6,   13.3,   13.6,   14.1,   13.9,   15.5,  999.0,  999.0,  999.0,   16.1,   15.6,   16.0,   16.5,   16.5,   14.5,   14.6,   15.0,   13.5,   12.8,   12.7,   12.3,   13.1,   13.3,  999.0,  999.0,  999.0,  999.0,  999.0,  999.0,  999.0,  999.0,  999.0,  999.0,  999.0,  999.0,  999.0,  999.0,  999.0
2004/10/12 19:00,   -1.1,   -1.5,   -1.8,   -0.4,    0.0,    0.0,    0.5,    0.8,    0.4,    1.0,    1.6,    1.1,    2.1,    2.2,    2.4,    3.1,    3.1,    3.7,    4.8,    6.7,    7.5,    8.8,    7.7,  999.0,   11.4,   10.7,   11.1,   11.4,   11.6,   11.9,   12.4,   12.5,   12.4,   12.4,   12.5,   12.3,   13.3,   15.3,   16.0,  999.0,   16.6,   16.6,   16.3,   15.9,   15.8,   15.1,   14.5,   13.9,   13.9,   12.3,   12.5,   14.5,  999.0,  999.0,  999.0,  999.0,  999.0,  999.0,  999.0,  999.0,  999.0,  999.0,  999.0,  999.0,  999.0,  999.0,  999.0,  999.0,  999.0,  999.0
2004/10/12 19:10,   -1.7,   -1.8,   -1.3,   -0.4,    0.1,    1.0,    0.3,    0.5,    0.7,    0.7,    1.4,    1.5,    1.5,    2.5,    2.9,    2.3,    3.9,    4.2,    5.1,    6.0,    7.1,    7.8,    8.3,  999.0,  999.0,    8.8,    9.4,   10.6,   11.6,   11.6,   11.6,   11.6,   12.3,   12.5,  999.0,   13.3,   14.0,   15.7,   16.7,  999.0,  999.0,  999.0,   16.8,   17.2,   16.2,   15.0,   15.6,   15.4,   14.3,   13.9,   13.1,   12.6,   12.8,   13.0,  999.0,  999.0,  999.0,  999.0,  999.0,  999.0,  999.0,   17.4,  999.0,  999.0,  999.0,  999.0,  999.0,  999.0,  999.0,  999.0
2004/10/12 19:20,   -0.7,   -1.7,   -1.3,   -1.1,   -0.9,   -0.1,    0.7,    1.2,    0.4,    0.3,    2.0,    3.0,    2.7,    2.3,    1.6,    1.8,    3.6,    4.2,    5.5,    5.9,    6.8,    8.0,  999.0,  999.0,  999.0,    7.6,    9.0,   10.5,   11.4,   12.1,   12.0,   12.4,   12.3,   12.1,   12.4,   12.9,   13.4,   14.8,   16.2,   16.6,  999.0,   15.3,   15.4,   16.5,   16.3,   15.0,   13.0,   11.9,  999.0,   13.6,   13.1,   11.9,   12.9,   13.6,   14.1,  999.0,  999.0,  999.0,   13.2,   14.5,   16.1,  999.0,  999.0,  999.0,  999.0,  999.0,  999.0,  999.0,  999.0,  999.0
2004/10/12 19:30,   -0.4,   -1.3,   -0.6,   -0.2,    0.4,    0.1,    0.7,    0.5,    1.4,    1.9,    1.5,    1.7,    1.3,    2.3,    3.2,    3.6,    3.4,    4.3,    5.1,    5.8,    6.2,    6.7,    7.3,  999.0,  999.0,    6.4,    8.1,    9.5,   11.1,   11.7,   11.8,   12.0,   12.0,   12.6,   12.3,   13.0,   13.0,   14.5,   15.7,   16.4,  999.0,   15.0,   15.8,   16.1,   16.6,   16.1,  999.0,  999.0,   12.0,   12.1,   12.8,   14.0,   13.3,  999.0,   12.8,  999.0,   12.6,   13.7,   13.8,   15.3,  999.0,  999.0,  999.0,  999.0,  999.0,  999.0,  999.0,  999.0,  999.0,  999.0
2004/10/12 19:40,    0.3,   -0.9,   -1.1,   -0.8,   -0.3,   -0.2,   -0.3,    0.3,    1.0,    2.0,    2.5,    2.5,    3.1,    3.0,    2.5,    2.7,    3.6,    4.0,    4.5,    4.8,    5.0,    5.3,    5.0,    6.4,  999.0,    7.8,    8.2,    9.4,   11.1,   12.0,   12.1,   12.0,  999.0,  999.0,  999.0,   13.5,   14.8,   15.4,   15.8,   16.3,   17.3,   15.8,   16.0,   15.9,   16.8,   17.7,  999.0,  999.0,  999.0,  999.0,  999.0,  999.0,  999.0,  999.0,  999.0,   11.4,   13.1,   13.1,  999.0,  999.0,  999.0,  999.0,  999.0,  999.0,  999.0,  999.0,  999.0,  999.0,  999.0,  999.0
2004/10/12 19:50,    0.2,   -0.8,   -0.8,   -0.1,   -0.1,    0.3,    0.5,    1.0,    1.2,    1.7,    2.0,    1.9,    2.9,    3.8,    3.4,    3.6,    3.4,    4.3,    4.7,    4.3,    3.1,    4.0,    7.0,    7.9,  999.0,    8.1,    7.9,   10.0,   11.6,   12.2,   11.5,   11.9,  999.0,  999.0,  999.0,  999.0,  999.0,   14.8,   15.1,   16.3,   16.1,   15.9,   15.6,   15.2,   16.6,   16.1,  999.0,  999.0,  999.0,  999.0,  999.0,  999.0,  999.0,  999.0,  999.0,  999.0,  999.0,  999.0,  999.0,  999.0,  999.0,  999.0,  999.0,  999.0,  999.0,  999.0,  999.0,  999.0,  999.0,  999.0
2004/10/12 20:00,    0.4,   -0.3,   -0.2,    0.1,    0.2,    0.5,    0.2,   -0.0,    0.9,    1.9,    1.9,    2.6,    3.0,    3.3,    3.7,    4.5,    5.7,    7.3,    5.9,  999.0,  999.0,  999.0,  999.0,   11.7,   10.0,    9.4,   10.7,   13.3,   13.9,   14.4,   13.8,   12.5,  999.0,  999.0,  999.0,  999.0,   14.3,   14.9,   15.7,   16.4,  999.0,  999.0,   16.1,   15.7,   16.6,   15.3,  999.0,  999.0,  999.0,  999.0,  999.0,  999.0,  999.0,   13.1,  999.0,  999.0,  999.0,  999.0,  999.0,  999.0,  999.0,  999.0,  999.0,  999.0,  999.0,  999.0,  999.0,  999.0,  999.0,  999.0
2004/10/12 20:10,    0.3,    0.0,   -0.5,   -0.1,   -0.4,    0.0,    1.3,    1.9,    1.6,    2.5,    2.9,    3.0,    3.0,    2.4,    3.0,    2.8,    3.9,    4.2,    4.8,    5.2,    6.5,    6.2,  999.0,  999.0,  999.0,    9.8,    9.6,   11.1,   11.3,   12.1,   11.5,  999.0,  999.0,  999.0,  999.0,  999.0,   14.3,   15.5,   16.4,   17.6,  999.0,   14.8,   15.6,   16.4,   15.8,  999.0,  999.0,  999.0,  999.0,  999.0,  999.0,  999.0,  999.0,  999.0,  999.0,  999.0,  999.0,  999.0,  999.0,  999.0,  999.0,  999.0,  999.0,  999.0,  999.0,  999.0,  999.0,  999.0,  999.0,  999.0
2004/10/12 20:20,    0.4,   -0.7,   -1.6,    0.1,   -0.5,   -0.3,    0.5,    1.0,    1.6,    1.6,    2.7,    2.0,    2.4,    2.7,    3.6,    4.2,    5.3,    3.8,    5.1,    5.6,    7.9,    8.3,    9.9,    6.1,  999.0,  999.0,   10.1,  999.0,  999.0,  999.0,  999.0,  999.0,  999.0,  999.0,  999.0,  999.0,   14.6,   15.3,   16.0,   16.7,   16.3,   16.0,   16.0,   16.0,   14.6,   13.1,   12.5,  999.0,  999.0,  999.0,  999.0,  999.0,  999.0,  999.0,  999.0,  999.0,  999.0,  999.0,  999.0,  999.0,  999.0,  999.0,  999.0,  999.0,  999.0,  999.0,  999.0,  999.0,  999.0,  999.0
2004/10/12 20:30,   -0.2,   -0.3,    0.2,    0.1,   -0.6,    0.4,    0.9,    1.8,    2.6,    2.9,    2.3,    2.4,    2.7,    2.1,    2.0,    1.3,    1.9,    2.7,    2.2,    2.8,    5.1,  999.0,    5.0,    5.4,  999.0,    6.5,    8.5,    9.7,  999.0,  999.0,  999.0,  999.0,  999.0,  999.0,  999.0,   11.9,   13.4,   14.1,   15.5,   15.6,   15.8,   15.9,   15.2,   15.2,   13.6,   11.6,    9.9,  999.0,  999.0,  999.0,  999.0,  999.0,  999.0,  999.0,  999.0,  999.0,  999.0,  999.0,  999.0,  999.0,  999.0,  999.0,  999.0,  999.0,  999.0,  999.0,  999.0,  999.0,  999.0,  999.0
2004/10/12 20:40,   -0.3,   -0.8,   -0.3,   -0.3,   -0.5,    0.0,    2.0,    1.4,    2.0,    2.2,    2.6,    3.1,    2.5,    1.1,    2.3,    2.1,    1.7,    2.7,    3.0,    0.1,  999.0,  999.0,  999.0,    2.1,  999.0,  999.0,  999.0,  999.0,  999.0,  999.0,  999.0,  999.0,  999.0,   10.4,  999.0,   12.3,   13.0,   14.0,   15.2,   15.8,   13.1,  999.0,  999.0,  999.0,   10.9,   10.9,  999.0,  999.0,  999.0,    9.0,  999.0,  999.0,  999.0,  999.0,  999.0,  999.0,  999.0,  999.0,  999.0,  999.0,  999.0,  999.0,  999.0,  999.0,  999.0,  999.0,  999.0,  999.0,  999.0,  999.0
2004/10/12 20:50,    0.0,    0.2,   -0.1,    0.1,   -0.0,    0.2,    0.5,    1.0,    1.9,    2.5,    2.8,    2.7,    3.1,    2.6,    2.8,    2.9,    3.3,    3.4,    5.0,    6.3,  999.0,    4.8,  999.0,  999.0,  999.0,    8.2,  999.0,  999.0,  999.0,  999.0,  999.0,    9.3,   10.2,   11.0,   11.2,   11.5,   12.3,   13.1,   14.4,   15.6,   14.8,   14.8,   14.1,   12.9,   11.3,   10.9,   10.4,    9.8,    9.6,    9.3,    8.9,    7.5,    8.4,    8.7,   10.0,    9.9,  999.0,  999.0,  999.0,  999.0,  999.0,  999.0,  999.0,  999.0,   14.2,   13.6,  999.0,  999.0,  999.0,  999.0
2004/10/12 21:00,   -0.4,   -0.0,   -0.2,    0.1,    0.1,  999.0,    0.8,    1.4,    1.3,    2.5,    1.9,    3.2,    3.4,    2.8,    2.8,    3.8,    4.4,    3.7,    6.6,    6.2,    6.1,    4.9,  999.0,  999.0,  999.0,  999.0,  999.0,  999.0,  999.0,    9.5,    9.6,    9.1,    9.8,   10.2,   10.6,   11.0,   11.7,   13.5,   15.4,   15.8,   15.8,   15.9,   15.3,   14.0,   12.6,   11.8,  999.0,  999.0,  999.0,  999.0,  999.0,  999.0,  999.0,  999.0,    9.9,   10.0,  999.0,  999.0,  999.0,  999.0,  999.0,  999.0,  999.0,  999.0,  999.0,  999.0,  999.0,  999.0,  999.0,  999.0
2004/10/12 21:10,    0.0,   -0.4,   -0.2,    0.9,    0.1,    0.1,    0.8,    1.4,    1.6,    1.2,    1.8,    2.4,    2.8,    2.7,    2.4,    3.0,    3.2,    2.9,    5.3,    6.3,    5.7,    5.8,    6.2,  999.0,    6.5,    7.7,  999.0,  999.0,  999.0,  999.0,  999.0,    9.7,    9.1,    9.1,    9.5,   10.1,   11.3,   14.2,   15.7,   16.0,  999.0,   14.9,   15.6,   14.3,   13.3,   11.4,   10.8,  999.0,  999.0,  999.0,  999.0,  999.0,  999.0,  999.0,  999.0,  999.0,  999.0,  999.0,  999.0,  999.0,  999.0,  999.0,  999.0,   12.6,  999.0,  999.0,  999.0,  999.0,  999.0,  999.0
2004/10/12 21:20,   -0.4,   -0.3,   -0.8,   -0.4,   -0.6,   -0.1,    0.6,    0.9,    1.3,    1.7,    1.5,    1.4,    1.8,    1.7,    1.4,    2.4,    3.2,    3.0,    4.3,    3.9,    4.7,  999.0,    4.6,    5.7,    6.6,  999.0,  999.0,  999.0,  999.0,  999.0,  999.0,  999.0,    8.2,    8.1,    8.8,   10.0,   11.9,   13.9,   15.1,   15.1,   14.8,  999.0,   15.0,   14.6,   13.0,   12.1,   10.7,    9.4,    8.4,    9.2,    8.3,  999.0,  999.0,  999.0,  999.0,  999.0,  999.0,  999.0,  999.0,  999.0,  999.0,  999.0,  999.0,  999.0,  999.0,  999.0,  999.0,  999.0,  999.0,  999.0
2004/10/12 21:30,    0.4,   -0.8,   -0.7,   -0.3,   -0.5,    0.7,    0.6,    1.6,    2.2,    2.4,    2.7,    2.6,    3.6,    3.1,    3.5,    4.6,    5.3,    5.6,    5.0,    5.3,    4.9,    4.3,    4.4,    4.7,  999.0,  999.0,  999.0,  999.0,  999.0,  999.0,    8.0,    8.4,    8.4,    8.3,    8.8,   11.2,   12.9,   13.7,   14.1,   13.8,  999.0,  999.0,  999.0,   14.0,   14.1,   12.6,   10.8,   12.1,   10.7,   10.2,   10.3,  999.0,  999.0,  999.0,  999.0,  999.0,  999.0,  999.0,  999.0,  999.0,  999.0,  999.0,  999.0,  999.0,  999.0,  999.0,  999.0,  999.0,  999.0,  999.0
2004/10/12 21:40,   -0.4,   -0.6,   -0.9,    0.0,   -0.2,    0.6,    0.9,    2.1,    2.5,    2.3,    2.1,    2.4,    3.0,    2.9,    3.7,    3.7,    4.4,  999.0,    6.2,  999.0,    3.3,    3.4,    3.9,    3.9,  999.0,  999.0,  999.0,  999.0,  999.0,    8.3,    8.2,    8.4,    8.6,    9.1,   10.0,   11.5,   12.6,   13.2,   13.3,   13.8,   14.1,  999.0,   15.0,   15.8,   14.4,   13.4,   12.4,   11.2,   10.4,    9.8,  999.0,  999.0,  999.0,  999.0,  999.0,  999.0,  999.0,   10.8,   11.3,  999.0,  999.0,  999.0,  999.0,   12.9,  999.0,  999.0,  999.0,  999.0,  999.0,  999.0
2004/10/12 21:50,   -0.2,   -0.7,   -0.8,    0.0,   -0.6,    0.3,    0.9,    1.9,    2.0,    2.5,    2.7,    3.4,    3.7,    3.8,    4.1,    4.8,  999.0,  999.0,  999.0,    4.3,  999.0,    3.7,    4.2,    4.6,    5.7,    6.7,  999.0,  999.0,  999.0,    8.0,    8.2,    7.8,    8.6,    8.9,    9.2,   10.7,   12.0,   12.7,   13.5,   13.8,   14.1,   13.8,   14.8,   14.4,   14.8,   14.1,   13.0,   11.5,   10.4,   10.3,   10.0,  999.0,  999.0,  999.0,  999.0,  999.0,    9.4,   10.1,   11.4,  999.0,  999.0,  999.0,  999.0,  999.0,  999.0,  999.0,  999.0,  999.0,  999.0,  999.0
2004/10/12 22:00,   -0.0,   -0.5,   -0.5,   -0.1,   -0.1,    0.7,    1.9,    2.1,    1.4,    2.2,    2.8,  999.0,    3.2,    3.2,  999.0,  999.0,  999.0,  999.0,  999.0,  999.0,    3.2,    2.9,    3.8,    4.4,  999.0,  999.0,  999.0,  999.0,    7.4,    7.2,    6.9,    7.9,    8.7,    9.1,    9.5,   10.9,   12.0,   12.7,   13.2,   13.5,   13.6,   13.8,   15.2,   14.8,   14.4,   13.8,   13.1,   10.0,    9.4,    9.4,  999.0,  999.0,  999.0,  999.0,  999.0,    9.9,   10.1,   10.4,  999.0,  999.0,  999.0,  999.0,  999.0,  999.0,  999.0,  999.0,  999.0,  999.0,  999.0,  999.0
2004/10/12 22:10,   -0.2,   -0.0,   -0.2,   -0.0,   -0.0,    0.2,    0.6,    1.4,    2.7,    3.2,    3.3,  999.0,  999.0,  999.0,    3.5,  999.0,  999.0,    3.9,    5.9,    3.8,    3.4,    3.2,  999.0,  999.0,  999.0,  999.0,  999.0,  999.0,    7.4,    6.9,    6.2,    7.7,    8.6,    8.8,    9.7,   11.1,   12.3,   12.9,   13.8,   14.1,  999.0,  999.0,   14.4,   15.0,   15.0,   14.6,   14.2,  999.0,  999.0,  999.0,  999.0,  999.0,  999.0,  999.0,    9.7,   10.0,  999.0,  999.0,  999.0,  999.0,  999.0,  999.0,  999.0,  999.0,  999.0,  999.0,  999.0,  999.0,  999.0,  999.0
2004/10/12 22:20,   -0.2,    0.3,   -0.5,    0.4,    0.3,    0.3,    0.5,    1.4,    3.2,    2.8,    2.8,    3.5,    3.1,    3.3,  999.0,  999.0,  999.0,  999.0,    6.5,  999.0,    3.9,    3.2,    3.8,    5.0,    5.6,  999.0,    6.5,  999.0,    6.7,    6.9,    6.1,  999.0,    7.5,    8.6,    9.8,   11.6,   12.6,   13.4,   13.6,  999.0,   15.1,  999.0,   14.5,   14.7,   15.2,   14.9,   14.1,   13.0,    9.5,  999.0,  999.0,  999.0,  999.0,  999.0,    9.0,    9.4,    9.4,  999.0,  999.0,  999.0,  999.0,  999.0,  999.0,  999.0,  999.0,  999.0,  999.0,  999.0,  999.0,  999.0
2004/10/12 22:30,    0.3,    0.1,   -0.2,    0.3,    0.8,   -0.7,    0.4,    0.3,    2.5,    5.0,    3.2,    3.5,    3.4,    1.8,  999.0,    2.6,  999.0,  999.0,  999.0,    3.9,    3.6,    2.4,  999.0,    4.5,    5.4,  999.0,    6.6,  999.0,    7.3,  999.0,  999.0,    6.9,    7.8,    9.5,   12.0,   12.6,   13.9,   15.0,  999.0,  999.0,   14.3,   14.1,   14.9,   15.6,   15.1,   14.2,   12.0,   11.0,    9.4,    9.0,    9.2,    9.8,    8.9,  999.0,  999.0,   10.4,   10.6,  999.0,  999.0,  999.0,  999.0,  999.0,  999.0,  999.0,  999.0,  999.0,  999.0,  999.0,  999.0,  999.0
2004/10/12 22:40,   -0.2,   -0.0,   -0.0,    0.2,    0.3,    0.4,    0.7,    0.8,    1.4,    3.1,    4.0,    3.6,    3.5,  999.0,    2.6,  999.0,  999.0,  999.0,  999.0,  999.0,    2.7,   -0.2,  999.0,  999.0,    4.8,    5.9,    6.8,    6.4,    7.0,  999.0,  999.0,  999.0,    7.9,    9.5,   11.9,  999.0,  999.0,  999.0,  999.0,  999.0,  999.0,  999.0,  999.0,   14.7,   14.3,   14.8,   12.7,   12.3,   12.3,   10.2,   10.2,    9.4,    8.6,    9.6,    9.3,   10.2,   11.0,   12.2,  999.0,  999.0,  999.0,  999.0,  999.0,  999.0,  999.0,  999.0,  999.0,  999.0,  999.0,  999.0
2004/10/12 22:50,    1.1,   -0.3,   -0.5,    0.8,    1.1,    0.8,    0.8,    0.2,    1.4,    2.7,    3.1,  999.0,  999.0,  999.0,    2.8,   -0.7,    0.5,   -1.5,  999.0,  999.0,  999.0,  999.0,    2.1,    3.5,  999.0,  999.0,    6.0,  999.0,  999.0,    5.7,  999.0,    6.7,    8.0,   10.1,   11.8,   12.7,  999.0,  999.0,   14.3,   15.1,  999.0,  999.0,  999.0,  999.0,   14.4,   14.6,   13.5,   12.4,   11.7,    9.9,    9.6,    9.1,    8.7,    9.8,    8.2,    9.9,  999.0,  999.0,  999.0,  999.0,  999.0,  999.0,  999.0,  999.0,  999.0,  999.0,  999.0,  999.0,  999.0,  999.0
2004/10/12 23:00,    0.3,   -0.4,   -0.2,    0.3,    0.8,    0.5,    1.0,    0.9,    1.1,    3.1,    3.9,    4.5,    3.9,    3.9,    3.7,  999.0,    2.9,  999.0,    2.4,  999.0,  999.0,  999.0,    4.2,    5.6,  999.0,    4.7,    5.6,    6.3,    6.3,    6.1,  999.0,    8.0,    9.3,   10.8,   12.3,   12.8,   13.4,   13.6,   14.3,   15.7,  999.0,  999.0,  999.0,  999.0,   13.8,   14.5,   13.7,   13.2,   11.5,   11.5,    8.4,    9.7,    9.6,   10.2,    9.9,   10.7,   12.3,  999.0,  999.0,  999.0,  999.0,  999.0,  999.0,  999.0,  999.0,  999.0,  999.0,  999.0,  999.0,  999.0
2004/10/12 23:10,    0.3,   -0.1,   -0.4,    0.5,    0.3,   -0.3,   -0.1,    1.6,    2.2,    2.6,    4.3,    4.5,    2.7,    2.7,  999.0,  999.0,  999.0,  999.0,  999.0,  999.0,  999.0,  999.0,  999.0,  999.0,  999.0,    4.5,    5.9,    6.4,    6.6,    5.9,  999.0,    7.3,    8.3,   10.1,   11.7,   12.2,   12.6,   13.5,  999.0,  999.0,  999.0,  999.0,  999.0,   14.2,   13.8,   12.5,   10.8,   10.8,    9.4,    8.5,    7.7,    7.5,    7.6,    7.5,  999.0,  999.0,  999.0,  999.0,  999.0,  999.0,  999.0,  999.0,  999.0,  999.0,  999.0,  999.0,  999.0,  999.0,  999.0,  999.0
2004/10/12 23:20,   -0.6,   -0.2,   -0.6,   -0.0,    0.2,    0.6,    0.3,    1.5,    1.9,    3.4,    3.6,    3.8,    4.0,    2.9,  999.0,    4.1,    6.2,  999.0,    1.4,    2.9,    4.0,    3.1,  999.0,  999.0,  999.0,    5.0,    5.6,    6.2,    6.5,    6.7,  999.0,    8.4,    8.6,    9.9,   11.5,   12.7,   12.8,  999.0,  999.0,  999.0,  999.0,   14.7,   15.2,  999.0,   13.8,  999.0,   11.2,   10.6,    9.9,  999.0,    9.6,   10.0,   10.5,  999.0,  999.0,  999.0,  999.0,  999.0,  999.0,  999.0,  999.0,  999.0,  999.0,  999.0,  999.0,  999.0,  999.0,  999.0,  999.0,  999.0
2004/10/12 23:30,    0.5,   -0.4,   -0.6,   -0.6,   -0.3,    0.8,    1.1,    0.6,    1.5,    3.4,    3.6,    3.4,    4.7,    4.6,    5.7,  999.0,    6.5,    5.2,  999.0,    3.1,    2.2,    1.8,  999.0,  999.0,    4.0,    5.2,    5.5,    6.1,    6.6,    7.3,    7.6,    8.3,    9.2,   10.2,   11.3,   12.0,   12.7,   13.2,  999.0,  999.0,  999.0,   14.6,   14.9,   15.1,   15.0,  999.0,  999.0,  999.0,  999.0,   11.6,   10.5,   10.7,   10.4,   11.6,  999.0,  999.0,  999.0,  999.0,  999.0,  999.0,  999.0,  999.0,  999.0,  999.0,  999.0,  999.0,  999.0,  999.0,  999.0,  999.0
2004/10/12 23:40,   -0.1,   -0.3,    0.1,    0.2,    0.3,    0.4,    1.2,    2.1,    2.7,    3.2,    3.0,    3.8,    3.7,    4.8,    4.0,  999.0,    4.3,    1.4,    1.9,    1.9,  999.0,   -1.4,  999.0,  999.0,    3.0,    4.7,    4.9,    5.6,    6.4,    7.4,    8.0,    8.4,    9.7,   10.7,   10.6,   11.4,   11.9,  999.0,  999.0,  999.0,  999.0,  999.0,   14.7,   15.4,   15.9,  999.0,   15.4,   15.1,  999.0,  999.0,   10.8,   11.7,  999.0,   12.4,   11.9,  999.0,  999.0,  999.0,  999.0,  999.0,  999.0,  999.0,  999.0,  999.0,  999.0,  999.0,  999.0,  999.0,  999.0,  999.0
2004/10/12 23:50,   -0.2,  999.0,  999.0,    0.2,    1.0,  999.0,    0.5,    0.9,    2.1,    3.7,    4.0,    3.4,    4.6,    4.5,    3.8,    4.8,    3.9,  999.0,  999.0,  999.0,    1.4,   -0.2,  999.0,  999.0,    4.0,    4.0,    4.6,  999.0,    6.9,    7.5,    8.1,    8.9,   10.0,   11.2,   11.6,   12.3,   12.9,   13.4,  999.0,  999.0,  999.0,   15.4,   16.6,   16.3,   16.2,   15.7,   15.8,   15.5,   15.8,  999.0,   12.3,   12.3,   13.2,   13.5,  999.0,  999.0,  999.0,  999.0,  999.0,  999.0,  999.0,  999.0,  999.0,  999.0,  999.0,  999.0,  999.0,  999.0,  999.0,  999.0
